GFSCGP_sfc_wetblb_000.txt.gz
Wetbulb
46.28 42.79 39.70 41.93 43.49 44.41 43.42 41.26 40.95 43.66 45.56 42.63 42.03 42.10 45.32 45.43 44.76 43.95 43.50 44.06 44.88 46.42 49.10 51.14 52.98 53.75 54.29 54.21 52.98 52.78 52.15 52.61 53.10 55.00 54.76 55.33 55.71 56.93 57.55 58.84 60.10 60.55 61.47 60.67
43.36 40.95 44.45 45.83 45.09 43.60 41.94 39.92 39.28 42.50 44.51 42.03 42.24 41.58 43.10 44.51 45.02 45.20 43.90 43.60 44.67 45.63 47.75 50.50 51.84 52.76 52.55 52.59 53.81 53.57 52.82 53.34 53.68 54.36 54.91 55.03 56.27 58.30 58.50 59.48 60.26 60.97 61.57 61.77
41.53 43.96 47.40 45.70 43.90 42.43 41.28 39.27 39.51 40.33 42.35 41.66 39.57 38.11 40.35 43.60 44.41 45.58 44.26 45.02 45.40 45.71 46.73 48.81 50.29 50.26 52.11 51.25 51.77 54.41 53.60 52.20 51.43 54.13 56.19 56.79 57.99 58.88 59.45 59.52 59.34 60.67 62.04 62.09
43.32 46.62 46.12 43.43 43.30 43.55 38.47 44.22 43.53 41.94 38.74 33.90 39.93 30.21 38.11 40.98 42.33 44.58 43.13 42.99 44.83 45.46 47.32 48.53 49.02 48.24 51.69 52.20 53.29 53.36 53.40 52.91 53.50 53.35 56.29 56.05 56.17 56.73 58.38 59.67 60.13 60.63 61.21 62.09
44.05 43.50 43.28 42.49 44.23 44.72 42.49 45.27 42.79 41.75 37.52 34.15 36.13 30.92 36.52 40.56 41.51 42.67 43.25 43.27 44.21 45.34 46.94 48.31 48.47 49.11 51.03 53.65 53.48 53.90 54.06 54.08 53.95 54.64 56.97 57.58 57.23 57.55 58.54 58.72 59.03 60.06 61.20 62.21
45.78 47.38 46.41 45.94 46.91 46.36 46.78 42.25 39.76 37.58 34.63 28.34 35.39 34.02 33.46 37.46 42.03 43.39 44.03 44.14 44.64 45.02 46.69 48.78 49.21 49.12 49.89 52.57 54.08 53.52 54.76 55.10 54.08 55.41 56.77 56.56 54.90 54.44 55.51 56.69 57.97 59.26 60.51 61.55
42.48 42.94 45.65 47.63 43.40 43.15 41.41 36.23 29.87 27.53 27.09 28.28 36.38 33.86 36.47 42.40 44.54 45.60 45.87 44.28 44.71 46.04 46.26 48.00 47.83 47.96 49.12 51.22 53.73 53.86 54.51 54.10 54.04 54.98 55.97 56.28 54.29 54.36 55.25 56.24 58.05 59.00 59.99 60.91
37.77 36.80 43.79 45.96 44.38 41.50 38.67 37.31 31.10 25.33 25.09 29.85 37.03 33.04 38.79 44.52 47.44 48.18 48.03 46.21 45.55 45.50 46.74 47.81 48.14 48.17 49.37 50.88 53.55 54.62 54.01 53.53 53.40 53.78 54.82 54.59 54.35 54.02 53.62 55.02 57.91 58.59 60.01 60.27
36.99 38.01 44.82 45.96 45.90 45.43 39.00 35.70 38.83 33.26 32.63 30.36 33.36 38.35 44.36 47.00 47.18 46.82 44.55 44.88 44.44 45.44 45.49 47.91 48.23 48.34 49.24 50.16 51.80 54.48 54.59 52.78 52.98 53.24 54.00 54.38 54.24 54.11 53.73 53.70 55.45 57.72 59.61 61.11
41.10 36.16 43.17 45.67 45.40 43.65 43.02 43.13 34.76 31.97 26.84 25.69 31.11 34.64 36.97 42.39 44.84 46.42 44.96 43.04 44.30 45.40 45.46 47.32 48.27 48.60 49.18 50.39 51.18 54.75 54.60 52.64 52.83 52.44 53.11 53.61 53.56 54.04 53.44 53.33 54.09 56.15 56.71 57.11
41.74 39.69 38.89 43.29 41.48 40.09 39.35 37.68 37.59 35.37 32.86 27.76 24.87 31.94 41.67 44.35 47.78 48.14 46.08 44.36 44.86 45.91 46.56 47.51 48.33 48.64 49.17 49.51 50.75 53.71 53.87 52.12 52.24 51.47 52.60 53.20 53.30 53.46 53.40 53.08 53.29 54.51 55.46 56.23
42.87 39.28 35.75 40.70 43.48 46.34 43.35 40.44 40.14 33.59 31.77 33.61 32.05 34.42 45.41 47.39 49.22 50.12 48.69 45.57 44.95 46.74 47.67 47.85 48.42 48.09 48.51 49.36 50.55 52.94 53.19 52.00 51.52 51.33 52.67 52.87 52.65 52.42 52.88 53.03 53.00 53.77 54.74 55.76
42.65 36.27 31.93 33.69 41.75 43.99 42.10 43.08 40.70 39.50 37.26 34.97 33.51 35.12 46.29 48.59 48.54 50.18 48.27 45.03 45.60 46.29 46.52 46.64 47.06 47.65 48.52 49.42 50.99 52.55 52.81 52.11 51.89 52.61 52.85 52.13 51.46 51.64 51.94 52.61 52.81 53.37 54.32 55.00
48.40 37.63 37.51 35.40 36.04 42.56 40.07 43.38 43.04 40.52 34.59 36.07 37.27 40.20 44.22 47.47 48.48 48.82 46.15 45.55 45.31 46.47 47.51 47.44 47.45 47.56 48.58 50.18 51.41 52.70 52.62 52.66 52.77 53.18 52.91 52.09 50.46 50.97 51.24 52.13 52.66 53.29 53.79 54.01
42.50 36.45 38.30 39.44 41.67 43.65 43.05 42.97 43.28 40.63 40.80 38.23 40.47 41.30 45.43 46.02 48.65 49.22 46.75 45.02 44.99 45.55 46.98 47.99 48.48 48.20 48.43 49.78 51.09 52.78 52.75 52.91 53.30 53.19 52.89 52.44 50.62 50.50 51.21 51.80 51.56 52.27 52.94 53.34
41.41 36.63 38.32 37.58 41.30 41.62 41.04 42.92 44.54 44.51 41.99 41.95 42.58 41.32 47.89 49.35 51.54 51.12 47.14 45.92 45.99 46.58 47.86 48.88 49.59 49.53 49.22 50.81 50.94 52.33 51.76 52.19 53.57 53.30 52.92 52.66 50.32 50.20 51.02 50.67 50.33 50.95 50.82 51.62
38.75 38.93 35.96 32.51 40.91 40.44 37.13 41.70 43.68 43.96 44.06 43.69 40.62 44.43 47.54 48.57 50.43 50.50 49.79 46.83 46.99 47.76 48.58 49.13 49.95 50.46 51.48 51.64 52.24 51.47 51.13 51.99 53.37 53.29 53.77 52.74 50.99 50.49 50.89 50.06 49.63 49.14 49.11 49.79
38.71 38.84 38.36 36.62 39.50 30.97 40.45 46.60 47.54 46.30 45.95 45.28 45.27 46.46 48.31 48.79 50.60 52.52 51.49 48.34 47.73 48.57 49.33 50.03 50.80 51.22 52.03 52.42 51.36 51.66 50.33 52.32 53.31 53.19 53.95 53.33 51.46 50.32 50.70 49.97 48.91 47.51 47.54 48.49
43.04 40.33 36.96 35.82 31.54 38.68 41.79 44.79 44.52 43.95 43.51 47.54 46.71 46.84 48.43 49.42 50.08 50.36 53.43 52.33 51.17 50.17 50.83 51.28 52.27 52.30 52.49 52.48 52.65 50.98 49.91 52.19 53.41 53.57 54.19 54.03 51.68 49.96 50.25 49.57 48.23 47.14 46.53 46.24
43.67 42.89 39.39 32.26 32.56 32.55 40.14 46.68 49.20 47.66 39.61 47.58 49.01 46.84 47.97 48.72 44.74 49.57 52.49 53.29 52.78 52.47 51.95 51.65 52.37 52.64 52.38 52.89 52.30 50.69 50.00 51.82 53.17 54.17 55.07 55.12 52.35 50.66 50.25 49.77 48.34 48.37 47.36 47.56
37.49 37.27 37.75 31.77 30.03 36.55 44.06 47.86 49.37 39.20 40.83 48.31 49.74 49.46 47.27 48.04 51.42 52.28 53.14 53.64 53.68 53.78 52.03 52.08 52.48 52.30 52.67 53.28 52.76 51.14 50.53 51.07 53.74 55.67 56.10 55.42 53.01 50.98 50.79 49.92 49.20 49.32 48.30 48.09
37.90 34.90 34.67 32.46 31.77 33.21 47.02 46.89 44.38 46.37 47.80 49.64 49.44 49.30 49.43 51.78 50.87 51.87 52.32 53.11 53.90 52.83 52.33 52.07 51.82 52.34 53.11 53.40 53.18 52.16 50.63 52.86 54.02 55.74 56.15 55.89 53.72 52.95 51.03 49.81 49.58 49.95 48.67 47.80
38.50 40.63 38.59 39.30 38.58 44.37 49.51 48.76 50.28 48.41 48.91 49.41 48.69 48.96 50.74 51.23 50.78 51.70 51.72 52.78 52.98 52.78 52.42 52.02 51.93 52.23 52.89 53.37 53.98 53.02 52.78 53.03 53.81 55.12 55.53 55.86 54.97 54.03 51.61 49.89 49.40 49.85 49.53 48.59
42.04 43.56 40.95 41.56 43.68 45.15 48.53 48.83 49.34 49.25 49.77 51.34 50.56 51.15 50.97 50.71 51.32 52.05 52.06 52.31 52.92 53.04 52.82 52.62 51.96 51.86 51.88 53.24 54.07 54.55 54.55 54.03 54.03 54.29 55.10 55.77 55.52 54.63 52.86 51.84 50.82 50.85 50.25 49.60
43.73 44.41 41.25 41.15 43.01 45.24 47.27 49.77 49.49 50.65 51.17 52.21 52.61 52.45 52.35 52.15 52.53 53.05 53.12 53.04 53.36 53.03 53.90 53.30 51.78 52.01 52.23 53.70 53.99 55.06 55.00 54.64 53.70 54.17 54.88 55.52 56.02 54.96 55.07 53.76 52.08 51.76 52.48 51.58
44.08 42.21 42.66 41.04 43.98 45.69 46.73 50.39 50.51 50.72 51.48 52.45 52.72 52.94 53.90 53.40 53.01 53.90 52.97 53.24 53.67 54.03 53.26 53.60 52.80 52.83 52.95 53.26 54.10 54.78 55.45 55.33 54.47 53.95 54.50 54.99 55.67 55.37 56.27 55.63 54.75 45.91 45.35 44.30

GFSCGP_sfc_wetblb_003.txt.gz
Wetbulb
52.40 49.25 46.93 49.42 49.92 49.59 48.45 46.68 45.81 47.42 49.90 47.78 47.90 48.28 49.73 51.81 50.30 50.17 50.40 50.59 51.52 52.38 55.63 57.75 59.08 59.46 60.10 61.19 61.43 60.61 61.19 61.55 61.13 61.69 61.17 61.58 61.58 61.68 63.50 63.30 61.40 61.64 63.15 63.30
48.56 47.09 50.90 50.97 49.89 47.87 47.18 45.74 45.56 47.80 48.90 47.94 48.26 47.46 50.31 50.84 50.89 51.47 51.37 50.72 51.41 52.72 53.98 56.35 58.30 59.08 59.95 59.60 59.97 61.64 60.31 60.77 59.47 60.70 62.25 59.87 62.31 62.43 62.27 62.45 63.09 63.12 61.97 63.08
48.37 49.52 50.11 49.13 47.61 46.43 46.69 45.92 45.70 46.12 47.15 47.78 46.45 45.60 48.05 51.21 50.02 50.73 52.01 52.66 52.47 52.68 53.56 55.81 57.09 58.49 59.50 58.96 58.88 60.76 61.24 60.75 59.91 60.97 62.66 63.27 63.71 62.71 61.60 61.57 60.91 61.27 62.01 62.60
49.57 50.27 48.53 47.67 47.39 48.36 45.13 48.73 47.84 46.35 44.91 41.90 46.50 39.66 46.29 49.56 49.76 50.11 51.13 50.86 51.52 52.64 54.51 56.11 57.02 57.55 59.13 59.41 59.44 59.47 60.57 61.00 60.41 62.20 63.47 63.02 61.95 60.66 61.68 62.27 63.05 63.54 62.63 62.63
47.79 47.47 47.61 46.74 47.87 49.21 47.33 49.38 47.86 46.67 45.47 43.18 43.47 40.70 44.87 46.85 47.92 50.98 53.26 51.39 51.80 52.90 54.08 55.20 56.31 57.19 59.27 60.05 60.82 61.76 61.25 61.57 61.55 63.00 63.55 61.98 61.74 62.13 63.37 63.73 62.85 64.38 63.67 64.81
50.30 51.09 50.80 50.01 50.59 50.01 50.92 47.38 45.34 44.59 43.80 39.03 43.74 42.18 43.04 46.09 48.82 51.28 53.09 52.55 51.45 52.49 53.84 55.91 57.18 57.38 58.56 60.34 60.48 61.48 62.42 61.03 61.69 62.67 62.94 62.21 61.03 61.55 61.91 61.86 61.77 62.29 62.41 64.45
47.37 48.37 49.91 51.36 48.49 48.59 48.90 46.29 40.13 38.43 38.89 37.81 42.22 40.86 44.69 50.15 51.40 51.66 52.52 52.87 51.84 52.63 53.46 55.34 55.58 55.36 57.29 59.08 60.32 60.94 61.39 60.28 60.99 61.71 63.10 62.48 61.11 61.64 59.90 59.86 61.03 61.18 62.04 62.12
42.54 40.86 47.48 50.01 49.75 47.37 46.99 47.17 40.70 33.56 35.57 39.16 41.76 39.83 44.53 52.09 52.88 54.03 54.20 53.96 52.15 52.09 53.89 55.39 55.91 56.26 57.00 58.27 60.38 60.64 60.16 60.09 59.90 61.07 62.54 61.88 61.47 60.88 59.76 63.56 60.92 62.52 62.11 62.17
42.89 42.77 48.41 49.69 50.57 50.53 44.87 43.28 48.05 43.22 40.87 39.24 42.30 45.10 49.78 52.41 52.82 53.31 52.03 51.02 50.69 52.04 53.58 55.17 56.13 56.75 57.42 58.53 60.19 61.24 61.21 60.38 59.87 60.23 61.88 61.45 61.15 61.01 60.35 61.20 62.41 63.79 62.97 63.16
46.65 42.01 47.70 49.11 50.43 49.48 48.34 48.78 42.05 42.52 35.55 34.45 39.70 41.26 43.67 48.91 50.88 52.86 51.49 50.96 50.99 52.52 53.81 55.22 56.21 56.72 57.77 59.33 59.66 61.46 62.44 60.51 59.66 59.78 61.27 60.83 60.21 60.10 60.82 61.40 62.58 62.84 62.33 61.24
49.19 46.97 43.77 47.33 46.58 46.04 45.47 44.79 44.90 44.64 42.65 38.07 36.81 41.20 51.10 51.63 53.66 54.86 54.38 52.84 51.80 52.41 53.64 55.13 56.34 57.07 57.79 58.94 58.71 60.17 61.99 60.06 59.97 59.99 60.41 60.55 59.86 59.81 60.57 60.42 61.33 61.85 61.90 61.01
49.22 47.88 42.98 44.15 48.42 51.14 49.60 47.12 47.36 41.72 40.33 42.40 41.77 41.99 52.36 54.03 55.48 56.11 54.80 52.92 53.04 53.73 54.38 55.37 56.47 56.94 57.04 57.65 58.31 59.51 61.87 60.08 60.18 59.57 59.89 60.03 59.67 59.75 60.42 59.93 60.84 62.08 62.10 62.32
49.06 47.08 41.33 41.63 47.24 49.22 46.25 47.40 48.47 47.91 47.01 42.73 39.99 42.88 52.43 54.48 55.40 55.31 54.72 52.92 52.13 53.23 53.87 54.94 55.88 56.05 56.45 57.25 57.88 59.21 61.09 60.23 58.98 58.86 59.46 59.37 59.05 59.67 59.91 59.82 59.95 61.15 62.03 61.57
51.30 47.98 44.53 39.90 42.89 47.67 45.73 46.43 47.25 47.07 43.10 43.33 43.55 45.81 50.45 53.44 54.18 54.38 54.83 53.48 53.11 52.90 53.62 54.66 55.11 55.96 56.88 57.23 58.04 59.18 60.60 59.85 58.30 58.45 59.21 58.82 58.97 59.08 59.89 59.86 60.18 61.25 61.50 61.31
50.38 44.59 46.28 46.78 46.89 47.87 46.99 46.85 47.75 45.67 46.76 43.76 46.16 46.74 50.58 53.99 55.13 56.71 56.05 53.46 52.39 52.83 53.59 54.46 54.87 55.82 56.77 57.16 58.09 59.51 60.56 59.38 58.85 58.60 59.21 59.22 58.73 58.56 59.13 59.42 59.84 60.35 61.30 61.11
47.71 45.76 46.40 44.09 46.19 46.48 44.85 46.59 47.67 48.05 47.97 48.02 48.21 48.40 54.65 55.69 57.24 55.77 53.72 52.07 52.12 52.89 53.89 54.61 55.39 55.82 56.34 57.14 57.78 59.19 60.10 59.68 59.21 58.73 59.04 59.48 57.41 57.36 58.68 58.64 59.05 59.75 60.17 60.25
47.12 46.34 43.39 40.83 44.84 44.72 41.18 45.45 46.31 48.05 49.54 48.96 45.93 50.66 54.15 54.38 55.88 56.98 54.74 53.44 53.61 54.02 54.35 54.90 55.44 55.82 56.68 57.54 58.57 58.67 59.91 60.19 59.17 58.94 59.21 58.82 57.34 56.99 58.01 57.79 57.89 58.41 59.74 60.12
46.93 47.35 45.58 42.66 43.93 35.62 46.41 50.59 49.49 48.24 49.85 51.51 51.52 52.83 54.35 55.72 58.02 59.10 58.37 55.94 55.59 55.33 55.27 55.82 56.42 57.31 57.82 58.57 59.14 60.04 60.12 59.31 59.13 59.14 58.59 58.36 57.08 57.10 57.87 57.55 57.94 58.23 58.42 59.49
45.98 46.64 45.30 42.80 41.51 44.01 46.56 48.39 47.81 47.39 47.97 52.75 52.15 53.65 54.90 55.88 56.99 56.78 58.77 58.87 58.24 56.90 57.45 57.49 58.13 58.25 58.30 58.24 59.37 59.52 59.02 58.95 58.91 58.78 58.79 58.42 56.91 57.14 57.71 57.24 57.19 57.45 57.30 57.26
46.78 47.87 45.03 43.94 40.52 37.31 47.34 52.04 52.80 53.44 45.80 53.87 54.29 54.57 54.38 54.99 50.97 54.25 58.99 59.46 59.13 58.54 58.62 57.90 57.83 58.33 58.50 58.98 60.07 58.94 58.49 58.54 58.37 58.87 59.03 59.38 57.82 57.42 57.68 58.62 57.28 56.64 57.30 57.31
41.74 43.29 40.32 40.19 41.55 44.32 50.22 53.24 53.95 44.91 47.66 56.25 55.41 56.17 55.51 54.10 56.66 60.14 60.45 60.08 61.18 60.59 58.08 58.91 58.01 57.89 58.74 59.96 59.85 58.55 58.68 58.12 59.62 59.49 59.88 59.65 58.49 57.95 58.98 59.07 57.81 57.05 56.48 56.21
40.44 39.79 39.91 42.40 39.25 37.36 51.50 51.98 49.12 55.81 55.87 56.32 56.43 56.97 56.33 58.53 58.93 58.57 59.21 59.76 59.97 59.62 58.63 57.75 57.06 58.10 59.29 59.77 59.62 59.13 58.93 60.10 60.31 59.93 59.64 60.01 59.33 57.30 58.05 58.60 57.80 57.62 57.11 56.55
39.86 43.93 42.88 44.28 43.94 52.78 54.58 55.69 58.12 58.47 57.52 55.02 57.57 57.51 57.49 57.71 57.77 58.21 58.49 58.62 59.52 60.39 59.68 58.04 57.44 57.81 58.29 59.57 59.78 59.11 59.70 60.05 59.55 59.83 59.71 60.26 60.10 58.59 57.64 58.05 57.85 56.85 57.22 56.13
43.73 49.42 46.36 46.91 49.20 51.66 53.45 55.96 56.97 55.39 55.43 55.88 57.79 57.72 57.57 57.29 57.73 58.00 58.40 58.65 59.45 60.33 59.53 58.26 57.55 57.21 57.14 58.85 59.40 60.30 60.16 59.72 59.00 59.57 60.08 60.51 59.90 58.88 58.28 57.28 57.79 57.19 56.71 56.11
43.07 47.37 47.34 47.94 51.04 51.42 52.90 55.47 55.86 55.56 56.40 56.79 56.97 57.74 57.86 57.98 57.86 58.51 58.73 59.50 59.80 60.22 59.93 58.26 57.47 57.62 57.68 58.36 58.79 60.30 60.41 60.06 59.81 60.58 60.50 60.25 60.16 59.14 58.91 58.25 57.25 56.88 59.84 56.76
47.08 45.41 44.77 45.72 51.87 52.80 54.15 56.09 56.44 55.79 55.62 56.95 57.24 57.30 58.54 58.83 58.88 59.74 59.91 60.26 60.31 60.07 60.21 59.13 58.00 57.88 58.37 58.27 58.41 59.43 59.91 60.13 60.10 59.84 60.04 60.05 59.82 59.68 59.70 58.57 57.88 46.35 45.50 43.85

GFSCGP_sfc_wetblb_006.txt.gz
Wetbulb
55.34 51.80 49.52 51.92 53.53 53.22 51.55 49.86 49.21 51.66 53.37 51.52 51.91 52.00 52.91 54.87 54.98 55.32 55.97 56.44 56.47 56.69 58.70 60.16 61.26 61.45 60.67 60.36 61.26 63.38 63.23 64.85 63.51 64.27 64.32 64.55 63.93 62.84 65.50 63.90 62.32 62.03 64.77 65.05
52.67 49.55 53.63 54.43 54.09 52.33 51.21 49.77 49.84 52.00 52.91 51.47 51.23 50.42 53.03 54.38 54.48 55.77 56.30 56.70 56.63 57.10 57.75 59.25 60.77 61.19 60.64 58.82 60.14 63.21 63.11 63.56 63.24 64.71 65.70 65.14 64.26 64.50 61.71 62.04 62.23 63.41 63.48 65.13
50.38 51.78 54.54 53.38 52.33 50.69 50.83 49.57 49.92 49.40 51.92 52.19 50.65 49.04 51.48 53.44 54.81 55.82 56.65 57.70 57.83 57.49 57.54 58.63 59.69 60.37 60.44 59.68 60.02 61.35 62.99 63.87 64.72 66.67 67.41 66.50 66.02 64.91 65.36 63.04 63.24 63.12 63.51 64.49
51.87 54.04 52.71 51.94 51.10 51.59 48.27 52.10 50.89 49.96 48.69 44.71 50.47 42.90 49.48 51.90 52.56 54.38 56.05 56.83 57.49 57.58 58.18 59.17 59.84 59.73 59.78 60.15 61.61 61.40 62.92 64.46 65.35 66.62 65.30 65.43 64.35 62.85 63.92 65.43 65.70 63.33 65.19 63.28
50.50 51.97 51.34 50.34 50.85 52.34 49.56 52.23 51.18 50.46 48.66 48.07 47.76 45.42 48.23 50.90 50.16 51.54 53.59 57.21 57.83 57.98 58.05 58.69 59.58 59.72 59.42 61.09 61.82 63.85 63.56 64.24 66.10 66.50 65.32 64.19 64.33 66.36 66.21 66.56 64.52 65.07 65.99 65.68
52.03 55.06 53.78 52.54 52.41 52.23 52.88 50.74 50.49 50.22 48.51 42.70 46.87 45.85 45.82 49.08 49.61 51.81 54.09 56.94 57.87 57.53 57.84 59.27 60.20 59.96 59.43 61.39 61.67 62.89 62.86 63.13 65.11 65.94 65.47 64.73 62.47 63.05 62.83 63.38 62.96 63.44 65.40 65.81
50.11 50.92 53.54 53.88 50.45 52.58 51.75 49.02 43.14 41.80 42.15 40.90 47.44 44.53 46.96 50.98 52.32 53.64 54.49 55.94 57.74 57.80 57.73 58.52 58.99 58.65 59.10 60.47 61.54 62.43 61.39 61.96 62.79 64.34 64.96 64.63 64.85 64.33 62.58 62.69 62.13 62.69 62.95 65.08
45.40 43.83 50.86 53.19 50.72 49.28 49.72 49.45 44.01 37.52 39.34 42.59 46.88 42.73 47.77 52.22 54.59 56.56 57.48 58.54 58.56 57.49 58.06 58.40 59.27 59.34 58.66 60.07 61.60 62.06 61.59 61.49 61.85 63.31 63.75 64.51 64.75 63.53 62.44 65.21 63.59 63.50 63.95 62.43
46.24 46.14 52.35 52.86 52.78 52.30 49.60 46.92 51.33 46.16 46.86 43.08 45.28 47.57 51.82 53.22 54.04 55.62 56.49 56.90 57.20 57.55 58.00 58.56 59.60 59.75 58.75 59.90 61.89 62.86 62.17 61.38 61.77 62.42 63.40 63.87 63.84 63.98 63.95 66.70 66.83 64.61 63.82 64.33
50.31 45.77 50.21 51.73 52.90 52.78 51.41 52.28 45.23 46.52 39.21 38.07 43.17 44.34 46.41 49.31 51.58 56.44 56.60 56.89 57.13 57.57 57.85 58.86 59.61 59.66 59.22 60.37 62.20 63.55 63.73 61.04 62.36 62.07 62.42 62.42 63.08 63.75 64.62 65.95 65.50 64.69 64.57 62.76
51.77 49.54 48.49 50.40 49.22 48.19 49.09 48.24 49.14 48.97 46.89 41.21 40.20 44.46 52.17 51.07 54.36 55.82 58.38 58.17 57.47 57.74 58.00 58.96 59.79 59.77 59.41 60.79 61.62 63.01 63.73 61.96 61.19 61.70 62.21 62.47 62.24 63.13 63.82 63.94 64.54 64.60 63.15 64.58
51.84 49.64 45.65 46.77 51.60 52.51 51.65 49.29 49.82 44.73 43.77 45.98 45.01 45.26 53.77 54.63 56.88 58.63 59.45 58.58 58.39 58.78 58.67 59.47 59.91 59.16 58.80 60.16 61.03 62.18 63.30 62.10 60.30 61.14 61.53 62.13 61.97 62.83 63.15 63.74 64.48 65.34 65.06 64.58
51.46 47.91 43.02 44.62 49.02 51.66 48.73 50.06 50.53 50.70 49.95 45.73 43.21 45.17 54.64 55.89 57.20 59.30 59.96 58.89 58.01 58.60 58.59 59.30 59.83 58.29 58.29 59.81 60.37 61.24 62.89 62.04 60.06 59.93 60.63 61.66 61.65 62.52 62.88 63.45 63.60 64.12 63.64 64.84
53.59 49.40 46.52 42.93 46.01 48.84 47.04 48.07 50.03 49.77 45.94 45.95 46.52 48.05 51.47 53.77 55.62 58.28 59.84 59.33 58.52 58.52 58.38 59.25 59.58 58.42 58.46 59.51 59.81 60.78 62.12 61.81 59.64 59.75 59.44 60.44 61.61 62.11 62.75 63.49 63.87 63.49 63.04 63.19
53.32 47.12 48.07 47.99 48.60 49.31 48.46 47.73 48.54 48.00 48.94 46.16 48.02 48.50 51.57 53.95 55.62 57.61 60.31 59.58 58.01 57.65 57.98 58.91 59.15 58.57 58.59 59.28 59.93 60.74 61.80 61.05 59.98 59.56 59.55 59.72 61.81 61.73 62.33 62.47 63.58 64.04 63.31 62.58
53.73 47.06 48.51 46.64 48.01 48.12 46.84 48.53 49.29 49.17 49.40 49.36 49.67 49.32 54.93 55.92 56.48 58.33 59.75 58.92 57.99 57.53 58.16 59.14 59.55 58.92 58.41 59.20 59.68 60.67 61.44 60.90 60.75 60.06 59.93 59.83 59.79 60.90 61.46 62.44 63.26 63.42 63.05 62.63
50.24 48.27 46.89 43.28 46.92 46.58 44.09 47.50 48.89 49.75 50.99 50.62 47.59 51.57 54.76 54.59 56.41 58.45 59.69 59.24 58.94 58.79 58.80 59.31 59.80 59.64 59.18 59.65 60.49 60.79 61.54 61.73 60.76 60.20 60.48 59.69 58.87 59.62 61.05 61.19 61.85 62.86 63.43 64.09
50.42 48.92 48.29 44.46 46.06 37.84 47.76 52.07 51.20 49.87 50.86 52.45 52.28 53.35 54.65 55.32 57.89 59.17 60.94 60.68 60.42 60.12 59.98 60.23 60.80 60.96 60.35 60.50 60.96 61.86 61.89 61.59 60.31 60.14 60.25 60.02 58.24 58.41 60.26 60.96 61.58 63.21 63.98 64.04
53.17 51.25 46.06 43.89 44.20 45.60 48.51 50.91 50.01 48.89 49.00 53.06 52.87 53.66 54.42 56.23 57.85 57.87 60.90 62.16 62.29 62.49 62.20 61.62 61.97 62.26 61.59 60.44 61.56 61.36 61.34 61.30 60.00 59.53 60.06 60.17 58.72 58.30 59.54 60.08 61.61 62.82 63.24 63.57
49.04 53.00 48.11 46.20 42.32 39.01 48.82 52.60 54.69 54.31 46.43 54.17 54.94 54.96 55.13 55.99 53.18 54.98 61.63 62.47 62.77 63.70 63.75 62.90 62.71 62.65 62.25 61.42 61.84 61.37 60.90 60.71 59.81 59.60 60.03 60.64 59.60 59.02 59.07 60.23 61.57 62.46 62.59 62.00
43.88 46.11 45.25 45.25 45.12 47.01 52.89 54.27 56.40 46.61 48.84 56.60 56.80 57.19 57.05 56.07 57.80 59.80 61.59 63.02 63.46 64.00 63.74 64.42 63.44 62.28 63.83 62.66 61.59 60.82 60.91 60.41 60.89 60.64 60.35 61.08 60.72 59.68 60.83 61.65 61.93 61.57 61.31 60.58
43.97 43.22 43.26 46.65 43.98 41.66 55.78 55.65 50.38 55.18 60.55 58.59 59.54 59.85 59.44 60.46 60.96 61.38 62.15 62.75 63.00 63.53 63.31 63.46 62.90 62.65 63.47 62.90 61.79 60.77 60.55 61.88 61.91 61.22 60.18 61.17 61.55 59.34 60.27 61.72 61.60 61.21 60.61 59.79
42.69 47.31 46.11 47.20 47.44 56.72 58.09 56.92 59.60 59.54 58.21 59.03 60.41 61.27 61.65 61.10 61.09 61.62 61.60 62.50 62.99 63.34 63.44 62.86 63.13 62.88 63.38 63.29 62.57 61.12 62.04 62.05 61.74 61.23 60.59 61.43 61.93 60.20 60.73 61.24 60.77 59.67 60.33 58.24
46.70 49.57 47.23 47.88 51.17 52.76 55.27 58.46 59.85 61.06 59.89 60.27 61.49 62.03 62.05 61.17 61.75 61.51 61.74 62.26 62.35 63.04 63.79 63.44 62.99 62.49 62.36 62.99 63.06 63.76 62.70 62.26 61.30 61.47 61.18 61.66 61.48 60.35 59.98 60.79 60.73 59.31 59.10 58.39
46.00 47.72 46.33 47.23 50.69 52.25 53.36 55.05 58.09 60.14 61.08 60.04 60.88 61.21 60.91 61.08 60.99 61.51 61.36 61.83 62.39 62.67 63.39 63.91 62.70 62.78 62.51 62.87 63.17 63.66 62.94 62.43 61.96 62.00 61.77 61.76 61.56 60.91 60.03 60.09 60.16 59.37 62.45 58.42
48.32 46.91 44.40 44.39 50.88 52.16 53.11 55.81 56.27 59.17 59.32 60.16 59.99 60.30 61.37 61.36 61.11 61.55 61.48 62.62 62.99 62.88 63.57 63.61 63.35 63.35 63.27 62.93 62.98 63.29 63.18 62.65 63.88 63.33 62.03 61.62 60.93 61.02 60.25 59.14 58.79 47.61 47.02 46.14

GFSCGP_sfc_wetblb_009.txt.gz
Wetbulb
53.27 51.77 49.25 51.71 53.54 53.33 52.89 51.97 50.83 53.16 54.96 53.82 53.25 53.20 55.04 57.20 56.86 56.41 56.73 57.29 58.53 59.07 60.48 61.50 62.65 63.18 62.28 62.31 64.25 63.85 63.36 65.66 65.03 64.72 64.56 67.13 66.64 65.02 65.89 65.89 63.83 64.12 64.99 65.39
52.33 49.80 53.48 54.41 53.97 52.88 53.00 51.44 50.91 53.16 55.00 54.35 53.42 52.60 54.97 55.32 55.39 56.58 56.56 57.22 58.41 59.50 59.54 60.50 62.32 62.75 62.19 62.45 63.38 63.41 63.65 64.87 65.66 66.49 66.45 65.98 66.35 65.71 64.70 65.85 65.72 64.86 64.87 65.10
50.05 52.47 54.56 53.40 52.77 51.99 52.25 50.97 50.96 50.84 53.63 54.70 52.88 50.76 52.35 55.07 56.14 56.50 56.85 57.96 59.38 59.67 59.37 60.16 61.44 62.17 62.27 61.36 63.28 63.52 63.73 64.98 66.79 67.46 67.91 67.19 67.58 66.80 66.28 65.47 64.86 65.04 64.82 65.51
51.57 54.52 53.30 52.13 51.72 52.89 49.77 53.43 52.27 51.23 50.40 46.70 52.75 44.53 50.90 53.33 53.40 54.88 56.09 57.38 58.53 59.71 60.33 60.69 61.38 61.89 61.66 61.33 63.85 63.94 64.75 65.52 66.73 67.35 66.27 65.90 65.35 64.89 66.76 65.79 66.33 65.71 65.63 65.29
49.44 51.64 51.91 51.15 51.85 54.12 51.29 53.90 52.23 51.90 50.06 49.53 49.18 46.82 49.79 53.16 51.32 52.62 54.76 56.70 58.87 60.20 60.30 60.38 61.11 61.97 61.49 61.38 63.24 64.68 65.35 65.94 66.37 66.92 66.63 66.32 66.22 66.11 66.70 66.38 65.09 65.87 65.87 65.34
50.88 54.93 54.06 53.35 54.49 54.39 54.62 52.29 51.64 51.60 50.09 43.90 47.94 47.45 47.78 49.93 50.89 52.23 54.50 56.45 59.41 59.90 60.18 60.85 61.96 62.11 61.09 61.41 63.23 64.22 64.93 64.72 65.86 66.41 66.07 66.04 65.35 64.86 65.32 62.98 64.51 64.10 65.55 65.28
49.66 50.62 54.23 55.36 52.59 54.34 52.44 49.97 43.87 42.45 43.39 42.26 49.76 47.20 49.02 52.45 52.60 53.40 54.33 56.74 59.69 60.03 60.02 60.44 60.83 60.36 60.68 60.77 62.25 63.73 63.93 63.37 63.88 65.46 65.06 65.91 66.02 65.48 65.15 64.98 62.81 62.87 64.86 62.83
45.79 44.54 51.73 54.84 53.14 50.72 50.42 49.76 44.68 38.70 41.31 44.59 49.70 44.70 49.49 53.53 54.10 55.22 56.22 58.87 60.57 59.78 60.12 60.40 60.96 60.76 60.16 61.12 61.73 62.91 63.13 62.86 63.61 64.24 64.77 65.49 66.12 65.84 65.07 63.76 64.07 63.36 63.61 65.45
46.61 47.10 52.88 53.93 54.43 53.40 50.27 47.45 51.92 47.42 48.16 44.96 47.32 50.18 52.93 52.87 53.66 55.81 56.89 58.76 59.96 59.83 59.85 60.46 60.82 61.28 60.23 61.04 61.99 63.00 63.05 62.92 63.21 63.65 64.90 64.79 65.43 65.97 66.72 66.64 66.43 64.51 66.33 65.53
51.74 46.99 51.82 52.79 54.33 53.81 52.18 53.20 46.90 47.93 40.86 39.76 45.24 46.72 48.39 50.91 52.23 56.74 57.71 58.73 59.39 59.66 59.70 60.30 60.76 61.49 60.17 61.25 62.90 63.60 63.36 62.25 62.89 63.20 63.79 63.94 64.56 65.72 65.97 65.58 65.25 65.75 64.32 66.30
52.01 51.18 49.96 52.50 50.78 49.35 49.34 48.69 50.15 50.44 48.01 42.93 41.88 45.83 53.62 52.76 54.09 55.34 58.42 59.74 59.06 59.11 59.35 60.09 60.86 61.50 59.90 60.88 62.19 63.24 63.27 61.38 61.95 62.58 63.22 63.17 63.61 64.71 65.29 65.27 65.61 64.22 65.94 63.92
52.78 51.79 48.13 49.17 53.35 54.16 52.44 50.01 51.16 45.93 45.00 47.68 47.16 47.41 54.94 55.04 55.03 57.37 58.68 59.97 59.47 59.66 59.86 60.56 61.06 61.15 59.41 60.32 61.65 62.48 63.23 61.11 61.24 61.97 62.55 62.35 63.18 64.03 64.70 65.04 65.67 65.90 65.18 63.97
53.38 50.14 46.20 47.75 50.60 52.83 50.38 50.98 51.31 52.12 51.45 47.30 44.61 46.56 55.09 55.91 55.82 57.51 58.37 60.06 59.23 59.56 59.86 60.48 60.79 59.96 58.75 60.25 60.95 61.71 62.84 61.55 60.71 60.74 61.81 62.21 62.51 63.27 63.86 64.24 64.58 65.98 66.12 65.47
55.47 52.30 48.59 45.49 48.29 50.31 47.96 49.31 50.88 50.72 47.13 47.23 47.79 49.48 52.81 54.38 55.01 57.48 58.52 60.43 59.71 59.47 59.83 60.36 60.51 59.75 58.79 60.34 60.56 61.32 62.40 61.99 60.43 60.21 60.64 61.80 61.95 62.71 64.11 64.37 64.12 64.37 65.13 65.20
54.95 49.86 50.04 50.57 50.94 50.42 49.87 49.02 49.25 48.94 49.53 47.41 49.35 49.77 52.98 54.70 55.65 56.99 59.63 60.50 59.81 58.99 59.33 60.06 60.47 59.67 58.82 60.22 60.60 61.33 62.37 61.49 59.92 59.58 59.73 61.44 61.92 62.44 63.77 63.89 64.03 63.26 63.04 63.35
55.98 49.56 50.30 47.81 49.90 50.20 48.70 50.12 50.16 49.51 50.17 50.22 50.84 51.11 55.57 56.60 57.02 57.44 59.40 59.71 59.58 59.18 59.29 60.21 60.83 60.05 58.82 59.87 60.21 61.25 61.92 61.02 60.09 59.76 59.22 60.82 61.16 61.18 62.21 63.51 63.84 63.56 62.80 62.57
51.58 50.77 48.62 45.00 48.61 48.19 46.24 49.42 49.92 50.39 50.83 51.09 48.59 52.70 55.58 55.17 55.89 57.04 58.63 59.61 59.94 60.08 59.88 60.43 61.01 60.75 59.88 60.05 61.07 61.08 62.06 61.46 60.19 60.33 59.96 59.39 60.68 60.53 61.08 62.07 62.14 62.45 63.47 64.21
53.04 51.96 49.72 46.13 47.76 40.20 48.88 53.12 52.52 51.42 51.87 52.94 53.08 54.32 55.57 55.80 57.33 58.00 58.95 60.48 60.70 61.25 60.65 61.15 61.94 61.93 60.87 61.04 61.48 62.19 62.45 61.37 60.22 60.07 60.00 58.94 59.24 60.54 61.04 61.24 62.10 63.79 64.32 64.32
55.22 53.29 47.10 44.87 45.10 47.23 48.86 50.99 51.04 49.96 50.02 54.36 53.84 54.81 55.78 56.73 57.15 57.51 59.23 61.97 62.16 62.82 62.77 62.15 63.17 63.22 62.06 61.19 61.83 61.98 61.68 61.33 60.12 59.79 60.13 59.40 58.31 59.67 60.80 61.16 62.72 64.05 64.43 64.88
52.78 54.91 50.23 46.55 43.25 40.35 48.91 52.42 54.71 54.48 47.18 55.04 55.04 55.14 55.54 56.06 51.80 54.97 60.06 61.23 62.45 63.65 64.14 63.21 63.66 63.87 62.72 62.28 62.41 62.02 61.28 61.15 59.92 60.09 60.56 60.57 59.01 59.26 60.18 62.09 63.47 64.24 64.32 63.78
47.31 49.40 46.69 44.87 45.08 47.51 52.62 54.74 55.47 46.58 49.15 57.18 56.15 56.38 56.76 55.17 56.54 60.14 61.01 61.76 63.57 63.76 64.50 64.94 64.15 64.33 65.28 64.73 64.20 61.35 61.45 60.92 61.25 60.84 60.91 61.07 60.35 60.57 62.42 64.67 64.69 64.00 63.21 63.16
44.80 45.93 46.03 46.80 43.94 42.85 55.13 54.82 50.33 55.59 57.77 58.21 57.39 57.85 57.88 58.76 59.03 59.82 61.12 62.82 63.40 63.29 64.10 64.44 63.54 63.97 65.97 63.76 63.53 61.70 62.32 62.58 62.03 61.32 60.62 60.97 61.28 60.40 60.83 63.71 63.31 62.68 63.63 62.87
44.97 49.17 47.83 49.56 48.41 57.08 57.33 56.81 60.03 59.81 58.59 58.84 59.41 59.56 59.43 59.33 59.72 60.14 61.06 62.51 63.05 63.52 64.13 64.76 64.64 64.27 65.24 65.01 63.79 62.93 63.99 62.54 62.05 61.41 60.78 61.49 61.49 60.38 61.72 62.60 62.16 60.43 62.48 59.81
49.34 53.09 49.78 51.07 54.07 55.22 57.12 58.84 59.72 59.55 59.03 59.97 60.24 60.95 61.36 60.35 60.89 61.18 62.27 62.61 63.09 63.64 64.16 64.68 64.82 64.16 64.39 65.28 64.79 63.98 63.19 62.75 61.98 61.67 62.38 62.90 61.79 60.37 62.02 61.78 61.59 59.97 59.39 58.68
47.39 48.92 50.04 50.53 52.89 54.91 56.07 57.94 58.95 59.51 60.02 61.34 61.64 61.06 60.89 61.35 61.51 61.65 61.87 62.42 63.29 64.09 64.75 64.61 64.22 64.49 64.55 65.18 64.62 64.33 63.94 63.25 63.41 64.32 63.23 63.54 61.80 61.59 61.97 62.03 60.88 59.83 62.28 59.10
46.95 45.99 46.20 48.09 53.55 53.60 54.27 56.97 57.28 58.56 59.62 60.27 60.17 60.08 61.35 61.51 61.00 61.82 61.76 63.21 63.58 63.57 64.12 64.58 64.60 64.50 64.92 65.27 64.99 64.85 64.52 64.33 64.83 64.53 62.98 61.83 61.28 61.47 59.73 60.16 60.42 48.40 48.67 46.82

GFSCGP_sfc_wetblb_012.txt.gz
Wetbulb
50.41 49.23 47.29 49.82 51.82 50.78 50.67 49.88 49.58 52.96 54.87 53.20 52.90 53.97 54.76 56.73 56.79 57.00 58.01 58.72 60.00 60.25 61.52 62.49 62.98 64.22 64.20 65.39 65.93 67.32 67.48 68.39 67.62 66.58 65.80 66.55 66.80 66.71 67.16 66.78 65.11 63.98 64.50 64.41
47.68 47.07 50.58 52.43 52.71 50.65 50.06 49.30 49.57 52.40 54.15 53.08 52.59 52.35 54.97 55.93 56.76 57.00 56.89 58.22 59.56 60.62 60.17 61.25 62.41 63.81 63.70 64.18 65.37 67.04 67.14 68.19 68.10 67.54 67.61 67.27 66.58 66.45 66.30 66.49 65.64 65.35 63.81 64.96
45.35 47.33 51.37 51.31 51.27 49.43 50.01 49.48 50.11 50.03 52.73 53.53 52.32 51.06 52.98 55.32 56.77 57.15 58.08 59.08 60.31 60.57 59.60 60.53 61.43 62.77 63.19 63.64 64.50 65.95 67.05 68.38 69.06 68.81 68.30 67.42 66.69 65.78 64.57 65.16 63.56 64.11 65.33 65.21
46.91 49.57 49.27 50.65 49.82 50.99 47.90 52.39 51.83 51.22 49.51 45.50 52.19 44.30 51.67 53.34 54.28 55.30 55.76 57.85 58.47 60.54 60.81 60.82 61.30 62.24 63.05 62.76 64.70 66.09 67.44 68.54 68.52 68.47 67.00 66.09 64.45 63.66 64.61 62.72 65.13 63.90 64.97 65.21
45.82 47.73 47.74 49.79 50.58 52.45 50.31 53.36 52.17 51.77 49.79 49.00 48.37 45.52 48.71 53.38 52.37 53.77 54.59 56.48 59.09 60.58 60.66 60.30 61.38 62.29 62.81 63.15 64.36 66.06 67.37 68.33 68.84 68.76 67.95 66.13 64.91 65.51 66.11 64.84 63.76 63.25 62.78 65.28
47.97 51.28 51.33 51.30 53.59 53.52 53.80 52.08 52.04 51.31 49.03 43.70 47.53 46.67 46.88 49.77 51.39 52.54 53.88 56.52 58.97 59.98 60.74 61.14 62.34 62.79 62.25 62.21 63.87 65.82 66.73 67.73 68.72 68.53 67.82 65.41 64.69 64.33 64.28 63.09 63.32 63.97 64.57 64.67
47.47 47.59 50.94 53.00 50.84 53.56 52.29 50.87 43.58 41.92 41.60 41.03 48.50 46.50 48.81 53.83 53.65 52.89 53.57 56.58 59.82 60.48 60.29 60.51 60.87 60.87 61.04 60.99 63.42 64.56 65.36 65.38 67.04 67.02 67.08 66.22 65.52 65.37 64.25 63.12 62.26 63.49 63.01 63.85
43.77 41.99 48.16 52.13 51.41 50.20 51.11 50.70 44.42 37.79 39.26 42.10 49.63 44.50 48.73 53.99 55.09 55.17 55.31 58.25 60.48 60.15 60.55 60.55 61.12 61.04 60.52 61.14 62.74 63.92 64.29 64.20 65.93 65.94 66.76 66.82 65.81 66.11 63.67 63.68 63.99 63.83 63.72 64.40
44.94 44.17 50.82 51.26 53.30 53.00 50.74 47.67 51.40 46.18 46.93 43.69 46.38 50.24 53.74 54.37 53.23 53.96 55.56 58.92 60.41 60.51 60.41 60.68 61.20 61.23 61.04 61.46 62.78 64.81 64.81 64.50 65.32 65.34 66.84 66.80 66.46 65.50 65.75 65.66 66.22 64.26 65.11 64.96
49.71 45.52 50.41 50.72 53.26 53.75 52.87 53.08 46.05 46.76 39.55 38.48 43.95 46.31 46.99 50.69 51.86 54.89 57.27 58.77 60.43 60.63 60.17 60.61 60.89 61.58 61.03 62.11 63.40 65.27 65.01 64.00 64.77 65.48 66.17 65.50 66.76 65.67 65.95 66.52 65.85 64.36 64.58 64.16
51.85 50.59 49.03 51.25 50.08 49.23 50.04 49.12 49.58 49.52 46.69 41.70 40.59 44.72 54.50 53.64 55.17 57.36 58.11 59.81 59.95 59.46 59.27 60.27 60.67 61.80 60.73 61.71 62.00 64.17 64.11 63.30 63.71 64.81 65.03 65.90 65.61 65.83 65.33 64.96 64.65 63.88 63.72 64.41
51.76 50.85 46.68 48.65 52.30 53.82 52.72 50.45 51.02 45.41 44.92 46.95 46.48 45.62 56.35 56.69 55.97 57.07 58.58 59.56 59.36 59.78 59.92 60.01 60.50 61.16 59.35 60.35 61.77 62.83 64.18 61.87 62.83 63.42 63.73 64.82 65.62 65.78 65.58 64.64 65.57 64.40 62.15 64.33
51.90 48.46 45.39 46.94 50.90 52.75 50.36 51.54 52.00 52.79 52.27 47.44 43.13 45.72 56.41 56.13 55.20 57.16 58.81 59.30 59.21 59.57 59.77 60.06 60.28 60.08 58.55 59.75 61.22 61.78 62.97 61.87 61.34 61.74 62.52 64.29 64.95 64.83 65.16 63.74 65.66 65.60 62.88 63.74
54.57 49.85 47.28 44.99 48.29 51.21 49.33 50.13 50.60 50.04 47.20 46.35 46.90 48.80 52.94 54.25 54.32 55.91 58.54 59.77 59.17 59.46 59.90 59.85 60.22 59.96 58.44 59.80 60.65 61.27 62.47 62.06 61.26 60.77 61.87 62.80 64.45 64.62 65.29 64.50 65.60 64.95 65.51 63.16
54.31 46.58 50.01 50.22 50.60 50.70 50.02 49.16 49.43 49.08 49.94 46.64 48.95 49.12 52.56 55.17 55.53 56.90 59.61 60.31 59.15 58.66 59.17 60.07 60.18 59.74 58.64 60.09 60.79 61.37 62.11 61.80 61.22 60.29 61.04 62.41 64.45 65.29 65.44 64.55 64.16 64.94 64.95 64.26
55.42 47.52 49.53 47.48 49.50 50.16 48.80 49.99 49.95 49.67 49.43 49.56 50.24 50.45 55.76 57.33 57.67 57.28 59.12 59.50 58.67 58.87 59.09 60.02 60.77 60.37 58.56 60.21 60.23 61.34 62.06 61.06 60.47 60.39 59.93 61.60 61.71 62.76 65.11 65.13 64.51 63.47 63.09 63.12
52.41 50.28 47.85 44.31 49.00 48.59 46.55 49.71 50.11 50.60 51.54 51.33 48.19 52.45 55.92 55.37 55.98 57.28 59.48 60.19 59.72 60.03 60.10 60.32 60.96 60.78 59.69 60.65 61.41 61.35 62.27 60.96 60.01 60.11 59.67 60.72 61.06 60.97 63.15 63.83 63.87 63.73 64.16 64.55
49.78 51.41 49.70 45.13 48.18 40.17 49.32 53.80 52.66 51.63 52.42 53.16 53.16 54.26 55.69 56.43 58.07 57.13 60.00 60.50 60.45 61.11 61.03 61.18 61.93 62.23 61.37 61.56 61.67 62.35 62.49 60.68 59.29 59.75 59.13 59.68 60.01 60.01 61.34 62.31 63.30 64.22 64.64 64.57
53.69 52.45 47.72 44.11 43.88 47.41 48.57 51.22 51.49 51.29 51.25 54.89 53.00 54.08 54.86 56.63 57.50 58.00 59.24 60.81 62.09 62.86 62.74 62.47 63.21 63.66 62.21 61.72 61.87 61.99 61.75 60.62 59.27 59.20 59.43 58.55 59.68 60.29 60.35 61.53 63.12 64.68 65.13 64.58
52.59 53.98 47.91 46.77 41.68 39.76 49.64 52.55 54.66 54.48 47.63 56.02 55.97 56.03 55.96 56.55 51.84 54.54 60.72 60.29 62.95 63.73 64.01 63.31 63.91 63.75 62.35 62.42 62.49 62.04 61.27 60.75 59.32 59.33 60.14 59.26 58.78 60.81 60.86 62.81 63.60 64.73 65.72 64.57
46.85 48.77 45.07 45.16 45.15 46.98 52.87 53.65 55.55 46.32 49.59 56.78 57.54 57.72 57.77 56.14 57.36 63.52 62.84 61.87 64.31 64.11 64.49 64.64 64.14 62.94 62.44 63.06 62.78 61.63 61.24 60.81 61.00 60.70 61.01 60.59 59.83 60.99 62.37 64.11 64.19 64.73 64.58 63.64
45.85 44.69 45.86 46.49 44.45 41.79 54.44 53.50 50.34 57.09 62.95 60.37 59.12 59.07 58.70 60.50 61.36 61.70 62.35 62.84 63.45 63.26 63.85 64.49 63.59 63.57 63.53 63.01 62.37 61.57 61.22 62.70 62.12 61.11 60.66 60.77 61.35 59.48 62.29 63.47 63.22 63.55 63.50 64.07
41.27 49.39 46.75 48.80 48.40 59.24 59.26 58.97 61.63 61.87 60.39 59.08 59.89 59.85 59.93 59.54 59.52 59.96 61.76 63.68 63.53 63.79 63.72 64.44 63.95 64.43 63.91 63.05 62.70 61.38 62.77 63.47 62.20 61.43 61.27 61.69 60.93 60.60 61.72 62.13 62.15 61.71 62.62 61.28
47.81 48.34 47.22 50.71 53.85 54.36 56.17 58.85 59.91 60.18 60.39 60.71 61.16 60.87 60.12 59.37 59.95 60.14 60.84 63.16 63.64 63.65 64.19 64.46 64.01 64.13 63.61 63.34 63.08 63.08 63.57 63.39 62.29 61.97 62.14 61.79 60.17 59.89 61.10 61.50 61.90 60.20 59.71 59.27
44.78 47.14 46.37 47.68 54.50 56.32 56.31 55.98 58.66 59.90 60.70 60.35 60.43 60.71 60.41 60.59 60.65 61.30 60.95 62.67 62.56 63.40 64.54 64.69 64.33 64.29 64.50 64.50 63.82 63.78 64.00 62.79 62.14 62.53 62.09 61.69 60.81 59.45 60.88 61.05 61.18 60.09 60.49 58.23
44.41 43.03 43.73 45.17 48.15 53.15 55.20 57.33 55.32 59.34 60.17 60.55 60.98 60.56 61.84 61.82 61.63 61.94 62.21 63.23 63.53 63.60 64.66 64.60 65.62 65.58 65.52 65.31 64.70 64.24 64.34 63.22 62.92 62.37 61.92 61.40 60.87 59.37 60.72 60.18 60.39 46.31 49.54 45.55

GFSCGP_sfc_wetblb_015.txt.gz
Wetbulb
48.35 42.84 40.98 45.61 46.63 48.37 46.75 45.69 45.42 49.17 52.01 50.78 50.60 51.25 52.52 53.67 53.46 52.47 52.84 53.21 54.60 55.19 56.30 58.16 59.23 59.17 57.88 58.20 59.13 59.72 59.51 59.20 59.67 60.69 59.93 60.19 59.52 60.84 62.02 62.59 62.20 60.98 60.95 61.55
43.11 40.22 45.03 49.47 49.23 47.50 48.13 45.37 44.81 48.47 51.56 51.60 50.51 49.90 51.74 53.45 52.48 52.55 52.97 52.77 52.40 54.57 55.66 57.41 57.97 57.47 57.04 56.73 57.97 60.06 59.16 59.63 60.72 61.20 61.45 61.33 61.83 61.83 61.55 61.82 62.75 62.32 62.18 61.49
40.75 43.53 47.35 48.37 48.03 46.68 47.02 45.90 45.58 45.59 49.76 50.96 48.53 45.57 48.42 52.79 53.02 53.91 54.16 53.47 54.59 54.69 54.77 56.32 57.66 56.29 56.36 56.76 57.79 59.16 59.16 60.39 61.57 61.65 61.82 61.09 61.04 61.20 60.42 60.69 61.92 60.97 63.05 62.28
42.22 45.84 46.13 45.53 46.10 47.64 43.49 49.95 48.98 47.84 46.59 40.91 48.59 37.52 45.05 48.85 49.91 51.88 53.02 52.25 53.98 54.86 55.94 56.55 57.26 56.05 56.19 56.91 57.81 59.63 60.21 60.81 62.39 61.55 60.67 59.33 58.52 57.95 59.77 60.86 61.72 61.12 63.00 62.00
42.11 43.14 43.69 43.53 45.59 48.32 45.86 51.00 49.03 48.58 46.23 43.87 43.98 38.81 42.57 48.13 47.97 50.05 50.28 51.90 54.18 55.21 55.60 56.10 56.90 57.52 57.77 57.51 58.35 58.91 60.17 61.02 61.39 61.61 60.78 60.01 59.19 59.83 60.14 59.09 58.91 59.05 60.06 61.94
45.21 48.61 46.41 45.22 47.52 49.30 50.98 49.06 48.42 48.08 46.25 36.84 42.66 41.32 42.16 44.91 48.43 48.52 50.61 53.59 55.13 54.96 55.50 56.81 58.15 58.23 57.33 57.54 58.11 59.73 59.73 60.44 61.22 60.91 60.92 59.83 59.62 59.87 58.94 58.04 58.71 58.91 61.08 61.81
44.53 44.50 47.36 48.27 45.26 47.77 49.55 44.69 37.85 33.66 34.83 33.34 44.39 41.47 42.73 48.43 51.25 50.07 51.78 53.94 54.31 55.65 55.73 56.44 56.82 56.33 55.46 56.36 57.76 58.75 59.04 58.62 59.51 60.32 60.36 60.70 59.83 59.46 59.06 57.88 58.43 58.49 59.54 60.13
38.23 37.31 44.93 47.93 45.58 44.79 45.16 45.10 38.37 31.01 32.48 36.54 44.96 39.61 44.45 51.34 52.92 52.25 54.87 54.84 55.13 54.76 55.85 55.86 56.47 55.67 54.96 56.23 57.76 58.22 58.21 57.95 58.71 60.05 59.83 60.58 60.36 60.14 59.04 59.11 59.65 59.15 59.65 60.59
38.34 39.24 47.73 48.34 48.48 47.62 45.28 43.24 46.68 40.22 40.84 36.64 40.76 45.80 49.29 50.37 49.99 50.92 54.26 54.56 53.19 54.30 54.96 55.65 56.27 55.09 54.97 55.72 56.48 57.40 58.15 57.29 58.80 59.69 59.26 60.17 60.68 60.68 60.64 60.08 60.42 60.13 60.92 62.60
42.84 38.19 46.30 47.52 48.36 48.30 46.88 49.15 41.91 38.61 32.65 29.95 38.74 41.30 42.70 47.40 47.79 51.81 53.44 53.03 53.44 54.04 54.83 55.57 56.15 54.97 55.26 55.75 56.05 57.82 58.20 57.45 58.25 59.20 59.39 59.40 60.96 61.30 61.35 60.99 60.41 60.52 61.06 60.11
45.13 41.90 43.63 46.60 44.31 43.21 44.42 44.73 43.51 41.89 39.14 33.17 32.42 37.58 47.70 47.22 50.40 51.95 53.17 54.45 53.89 54.05 54.61 55.31 55.27 55.40 55.63 56.01 56.57 57.71 57.11 57.27 56.86 57.82 57.48 58.81 59.39 60.75 61.69 60.54 61.78 60.06 61.42 61.49
45.51 41.95 39.36 43.64 48.01 48.87 47.70 45.26 43.78 40.38 37.12 39.63 38.36 39.93 50.74 50.92 53.25 53.69 54.43 55.33 53.94 53.78 54.29 55.08 55.48 54.28 55.33 55.36 56.07 57.23 57.00 56.97 56.69 57.68 57.31 58.36 59.80 60.78 61.19 60.79 61.25 61.37 60.34 61.46
45.77 41.74 35.63 39.62 43.88 47.29 45.90 47.59 46.63 44.11 42.60 39.48 37.33 38.99 50.85 52.20 52.23 55.53 54.24 54.94 55.14 54.19 53.95 54.28 55.68 54.01 54.73 54.83 56.28 57.22 57.84 56.06 56.88 57.78 56.28 58.11 59.25 59.17 59.83 60.38 59.99 61.35 60.66 60.70
50.35 41.99 40.02 37.27 41.52 45.55 44.24 47.00 47.30 44.34 39.13 40.80 42.91 43.40 48.55 50.25 50.82 52.89 54.62 54.62 54.51 54.70 55.04 54.63 55.26 52.90 54.63 54.59 57.16 57.53 57.54 55.90 55.92 57.02 55.60 57.40 58.03 58.54 58.82 59.73 60.88 61.42 61.66 61.11
45.46 40.57 43.47 44.52 46.49 47.03 47.20 47.28 47.28 44.94 45.25 42.69 44.08 44.82 47.64 49.83 50.48 53.12 54.80 54.46 54.49 53.85 54.53 55.00 54.74 52.99 53.76 53.63 55.70 57.52 57.65 55.56 55.48 56.99 55.54 56.80 57.88 59.43 59.60 59.56 60.29 61.14 61.91 61.10
42.10 41.28 43.38 42.42 46.65 46.35 46.07 47.94 47.89 47.67 46.57 46.03 46.51 45.74 50.89 53.56 52.65 53.41 55.08 55.10 54.59 54.70 55.64 56.14 56.07 54.17 54.36 54.88 55.36 57.52 57.12 55.26 55.17 56.74 56.01 57.41 57.42 58.98 59.52 57.92 57.53 59.13 59.72 59.63
38.29 41.89 40.90 38.08 44.22 44.56 40.92 47.21 47.35 47.86 47.74 46.96 43.62 45.86 49.71 50.90 51.67 51.62 55.09 55.52 55.16 55.53 56.17 56.59 56.46 54.99 54.77 55.57 55.73 56.05 56.50 54.90 54.59 56.87 57.63 57.24 57.11 59.03 58.95 58.55 58.02 57.68 57.98 56.93
37.22 38.56 41.06 38.88 41.06 33.47 44.67 49.96 50.97 48.65 49.18 48.45 48.37 49.79 50.99 51.17 52.51 54.23 57.39 56.12 56.13 56.52 56.71 57.17 57.02 55.45 55.36 56.28 55.40 56.64 56.34 54.55 54.73 55.57 57.11 57.21 56.90 57.87 58.32 57.85 57.34 57.70 57.84 56.83
42.56 39.83 39.03 36.90 37.54 42.42 46.38 49.24 48.81 47.15 46.34 50.37 48.23 50.59 52.01 52.16 52.13 51.48 58.02 58.50 57.60 57.47 57.76 58.17 58.33 56.59 55.70 56.87 56.68 57.29 55.75 54.51 54.42 54.90 55.50 57.04 56.36 56.10 56.68 57.31 56.68 57.80 57.63 56.88
44.66 44.81 41.19 38.56 33.82 33.85 43.80 50.09 52.30 50.80 43.20 50.77 50.96 49.83 49.86 51.07 47.59 48.47 54.74 58.29 58.25 58.49 58.69 58.63 59.08 57.48 57.06 56.93 57.47 56.80 55.95 54.51 53.77 54.72 55.53 56.88 56.57 55.96 55.29 57.56 57.49 58.27 58.19 58.06
40.92 41.41 39.59 38.71 35.86 41.10 48.63 52.17 52.29 41.19 41.59 51.23 51.96 51.02 50.75 48.71 50.20 52.89 55.11 58.01 59.55 59.41 58.98 59.90 59.27 57.12 56.93 57.85 57.66 56.65 56.05 54.89 55.30 55.69 56.04 55.13 56.14 56.14 56.13 58.57 58.92 58.78 58.63 57.76
39.79 39.89 38.91 38.47 37.39 35.00 50.88 49.96 44.35 46.89 50.76 52.41 52.50 53.03 52.05 53.03 54.93 55.54 57.75 57.95 59.09 59.36 59.33 60.12 58.88 57.18 57.79 58.28 57.97 56.45 55.62 56.90 56.75 56.01 56.38 54.87 55.08 58.55 59.96 58.91 58.70 58.91 58.34 56.98
39.40 42.30 40.22 41.86 40.76 49.30 52.25 49.98 54.30 54.14 51.53 53.07 53.53 54.08 54.98 55.13 54.82 55.55 55.24 58.27 59.16 59.83 59.80 60.36 59.33 57.79 58.05 58.52 58.32 57.03 56.81 58.11 57.59 55.39 54.85 55.27 55.99 56.49 59.52 58.92 58.10 57.40 57.25 57.00
41.90 42.84 41.71 42.66 46.16 47.25 51.55 52.50 54.07 54.82 53.48 55.19 56.06 55.66 55.19 54.12 54.56 54.69 56.86 58.36 59.24 59.49 59.77 60.28 59.82 58.11 57.33 58.17 58.48 58.54 59.18 59.33 57.82 55.18 55.19 55.92 54.45 55.73 58.71 59.49 58.98 57.81 56.04 55.37
40.55 41.42 43.33 43.05 44.98 46.61 48.43 50.48 52.87 55.06 55.36 56.18 56.41 56.62 55.96 55.52 54.79 54.93 57.33 59.06 59.74 60.13 60.40 60.73 60.43 59.19 58.34 58.37 58.51 59.01 60.24 59.53 57.14 56.03 56.67 55.35 55.04 56.62 56.92 58.33 58.48 57.41 56.23 55.25
42.45 40.93 40.26 40.32 44.18 44.45 44.85 47.46 55.03 54.33 53.78 54.96 53.77 55.77 56.53 56.36 55.84 55.86 56.00 59.27 59.15 59.36 60.81 60.60 60.93 60.50 59.76 59.48 59.39 59.73 60.26 59.64 57.34 56.71 56.99 55.78 54.85 56.08 56.92 56.35 55.32 44.56 46.65 46.95

GFSCGP_sfc_wetblb_018.txt.gz
Wetbulb
46.03 43.23 40.02 44.29 44.93 45.31 44.91 42.86 42.00 46.07 49.56 47.85 46.96 47.88 50.82 52.74 50.65 50.38 50.55 51.19 52.39 52.50 55.00 56.75 56.52 56.32 56.85 57.34 57.38 57.17 57.42 57.99 58.07 59.19 58.27 58.78 59.05 58.94 59.99 60.63 61.89 61.78 59.80 59.58
41.68 39.50 44.70 45.94 45.44 44.18 43.34 42.15 42.81 46.57 48.96 46.52 46.69 47.52 50.81 51.55 51.18 51.02 51.48 51.47 50.82 52.44 54.73 56.25 55.57 55.35 55.69 56.63 57.37 57.98 57.25 58.22 59.05 59.81 59.30 59.95 59.85 60.19 60.07 60.48 62.36 62.45 60.93 60.65
39.83 42.62 47.76 45.91 43.54 43.86 43.75 42.32 42.93 44.23 47.87 48.16 46.07 44.85 47.61 51.41 51.45 52.07 52.29 51.97 52.77 53.39 53.83 55.08 54.92 54.34 54.64 55.17 57.27 57.52 58.08 59.11 60.62 59.94 59.93 59.30 58.96 59.29 59.13 58.81 61.02 61.12 62.74 61.91
41.17 45.06 45.14 44.07 42.00 43.09 41.19 47.63 46.42 45.91 44.45 38.57 46.16 36.11 42.59 47.27 48.22 49.70 50.84 49.76 51.21 52.94 54.78 55.28 54.17 52.98 53.71 54.90 57.54 57.96 58.61 59.73 60.44 60.25 58.74 57.29 56.63 56.47 57.87 57.77 58.87 59.11 61.01 61.92
39.42 42.04 42.03 41.10 42.11 44.51 43.50 48.38 46.69 46.66 44.45 41.33 43.12 37.35 41.32 45.93 46.27 48.38 49.75 50.51 51.47 52.97 54.19 54.41 54.32 54.84 55.64 55.88 56.69 58.07 58.90 60.45 60.31 59.68 59.08 57.62 56.55 57.65 58.53 57.13 57.82 58.24 59.77 61.60
42.91 45.92 44.21 43.15 45.39 45.54 47.34 45.88 44.99 44.22 42.39 35.05 41.77 39.72 42.17 42.98 46.79 48.36 49.08 51.25 51.60 52.08 53.05 54.35 55.29 55.38 55.03 55.38 56.77 57.92 58.67 59.38 60.03 59.51 58.83 58.01 56.58 56.98 56.45 56.15 56.97 58.08 59.52 60.06
41.88 42.44 45.29 46.03 41.96 45.33 44.58 39.51 32.95 30.79 33.48 33.93 42.96 40.18 43.44 46.01 48.96 50.19 50.20 51.27 51.78 53.04 53.97 54.81 54.50 54.43 54.17 55.12 56.73 57.75 58.08 57.86 59.01 59.12 59.18 58.41 57.06 57.61 56.42 56.97 57.13 57.55 58.10 58.82
36.18 35.22 42.99 46.43 43.26 40.64 41.02 40.61 34.81 29.27 30.04 34.26 42.61 37.49 43.40 48.79 50.45 50.97 53.09 53.11 53.63 52.72 54.43 54.89 54.98 54.40 55.07 55.43 56.35 58.16 56.81 56.96 58.09 58.53 58.97 58.39 58.72 57.90 57.90 57.66 58.47 57.97 58.46 59.45
36.23 37.35 46.06 46.68 46.65 44.74 40.53 38.11 43.75 37.66 37.94 34.52 37.98 42.42 47.42 48.97 49.18 51.20 51.09 52.78 51.70 52.33 53.76 54.47 54.35 53.35 53.19 55.08 55.82 57.16 56.36 55.80 58.12 58.39 58.88 58.40 58.95 58.83 59.10 58.36 58.56 58.59 60.05 61.15
39.96 35.07 43.81 45.79 46.54 45.91 43.26 45.35 38.48 35.57 32.07 28.98 35.91 38.48 40.44 43.93 47.34 50.14 50.34 50.35 50.58 52.11 53.17 54.34 54.33 52.66 53.38 55.53 54.50 56.45 56.73 56.55 57.64 57.91 57.54 59.34 59.32 59.97 60.02 60.74 58.81 59.08 59.82 59.75
42.99 38.28 40.39 43.89 41.88 41.08 39.88 40.22 40.85 40.79 37.82 32.56 30.56 36.46 44.44 46.42 47.05 50.04 50.79 51.25 51.58 52.19 53.43 54.19 53.61 53.47 53.13 53.89 54.39 55.66 55.64 56.47 56.04 57.39 57.07 58.37 59.00 60.27 59.91 59.83 59.11 60.53 59.90 60.34
44.01 37.27 35.80 39.23 43.23 46.56 44.14 40.54 42.71 38.40 35.20 37.07 36.16 36.79 47.43 46.56 51.17 52.25 51.14 52.63 52.53 53.55 54.00 54.11 53.54 52.72 52.87 53.23 54.56 54.82 54.95 55.55 55.55 55.76 56.73 57.93 58.97 59.87 59.55 59.39 58.84 58.98 59.62 60.79
41.91 38.98 32.31 35.99 39.52 43.83 41.91 43.27 44.11 40.54 38.92 36.79 35.17 37.18 48.60 50.05 51.42 53.40 52.15 52.08 52.93 52.93 53.03 53.09 52.28 53.14 53.66 53.15 54.62 55.15 55.21 54.98 55.41 55.94 55.85 57.83 58.14 59.29 59.11 58.22 59.63 59.59 60.18 61.39
42.75 38.20 37.89 34.73 39.03 42.07 40.01 42.70 45.09 42.57 36.38 37.38 40.98 40.77 45.43 48.22 50.90 51.37 52.13 52.88 52.71 53.45 53.80 53.72 52.58 52.79 53.69 54.43 55.21 55.65 55.47 55.04 55.53 55.11 56.60 56.81 56.45 57.43 58.06 58.79 60.45 59.69 60.85 60.93
37.19 34.63 39.96 41.44 42.88 43.81 43.29 43.57 44.44 43.81 42.93 40.88 41.59 42.65 45.57 47.59 51.38 52.84 53.09 52.46 52.67 52.95 53.23 53.98 52.45 52.03 52.23 53.74 55.01 55.95 55.71 54.16 55.38 54.69 55.87 56.16 56.26 57.09 58.15 59.39 60.02 59.97 60.00 60.41
36.82 32.31 39.96 38.79 42.72 42.73 41.34 44.16 45.71 46.26 44.77 43.51 44.21 43.30 48.44 50.61 54.27 53.35 52.93 53.06 52.74 53.25 53.98 54.57 54.19 52.79 52.39 54.49 55.32 56.36 55.51 53.93 55.87 54.26 54.82 56.84 57.01 58.28 57.38 57.66 59.41 59.24 58.79 58.83
33.86 34.65 34.48 35.63 41.54 41.08 37.39 42.41 44.67 46.27 47.02 46.00 42.09 44.19 47.86 48.74 51.21 53.24 52.54 53.80 53.55 54.00 54.56 54.78 54.67 53.32 53.58 54.00 56.10 55.53 54.77 54.49 55.52 54.71 55.99 56.61 56.30 58.54 56.42 56.30 57.00 56.80 55.85 55.69
34.00 33.40 33.78 33.93 37.69 30.48 41.86 46.91 47.44 47.23 47.19 48.32 45.59 46.95 49.38 50.34 51.25 54.46 55.07 54.29 54.26 54.81 55.17 55.44 55.64 53.86 54.10 54.23 55.38 55.84 54.17 54.90 55.78 55.02 55.89 55.80 56.27 57.65 56.74 56.20 56.56 55.26 54.50 54.74
38.37 34.40 31.98 32.38 34.87 38.48 42.14 45.84 45.57 44.38 43.75 47.09 48.07 47.65 49.09 50.07 50.10 49.54 56.00 56.27 55.71 55.84 56.40 56.48 56.85 54.85 54.52 54.17 55.26 56.16 53.68 54.35 55.57 55.41 55.35 55.42 56.31 56.49 56.30 55.42 55.61 55.10 54.42 53.67
38.88 38.29 36.19 35.54 30.94 31.78 40.30 48.23 49.90 48.42 42.21 48.04 48.86 48.05 48.07 48.35 46.05 46.72 55.51 56.75 56.32 56.85 56.98 56.82 56.57 54.74 54.94 55.07 56.07 54.73 52.99 53.14 54.44 55.30 55.92 55.46 56.02 55.61 55.61 54.96 55.85 55.71 54.47 54.31
36.01 35.55 32.97 33.78 33.67 38.17 45.01 49.12 50.36 41.22 42.73 48.52 49.23 49.20 48.32 47.78 50.14 50.45 56.10 56.71 57.07 56.86 56.85 57.26 56.15 54.95 55.44 55.52 56.20 54.18 52.96 52.41 54.52 55.72 56.26 55.05 54.98 54.37 55.69 55.51 55.67 56.11 55.73 55.04
36.66 37.39 35.58 36.54 34.76 33.14 47.87 48.20 43.21 45.91 47.32 49.52 49.76 48.94 48.73 49.91 50.99 50.66 56.19 57.02 56.92 56.47 56.56 57.41 56.01 55.15 55.55 56.50 56.67 54.50 52.99 54.20 54.39 55.18 55.34 54.92 54.45 56.03 57.31 56.35 56.03 56.36 55.51 54.66
34.55 38.81 36.07 39.09 38.19 44.28 46.79 46.55 47.33 51.55 49.62 50.07 50.14 50.56 51.42 50.29 51.56 53.55 53.83 56.43 57.05 56.84 57.37 58.18 56.75 54.82 55.43 56.46 56.90 55.08 54.85 54.68 54.64 54.22 53.69 53.23 54.71 55.14 57.57 56.93 55.97 56.05 55.61 54.61
38.88 41.72 37.50 40.05 41.61 41.36 45.12 46.15 47.30 49.48 52.83 53.47 53.40 52.07 51.92 51.84 52.11 52.42 54.54 56.44 57.40 57.64 57.84 58.18 56.16 54.89 54.92 56.29 56.72 56.98 56.52 56.41 55.30 53.32 52.77 52.51 54.59 55.14 57.37 58.14 57.75 57.27 55.91 54.95
38.98 40.39 38.87 39.87 41.01 42.39 44.34 45.03 46.53 47.10 50.01 53.80 55.24 53.82 53.96 53.14 52.13 52.78 55.09 56.61 57.99 57.94 58.51 58.21 56.44 55.78 55.75 56.41 56.46 56.63 57.69 57.33 55.31 53.15 53.20 52.75 54.40 56.24 56.82 57.82 57.88 57.55 57.42 56.62
41.60 38.68 37.54 37.66 41.72 40.48 42.16 45.53 47.61 45.94 46.37 53.17 54.59 55.08 54.07 53.20 52.25 54.21 56.24 57.83 58.36 58.26 58.66 58.17 57.33 56.55 56.47 56.81 56.69 57.36 58.60 57.65 55.93 53.88 53.90 53.14 53.45 55.69 57.06 56.60 54.19 42.93 49.22 46.90

GFSCGP_sfc_wetblb_021.txt.gz
Wetbulb
43.23 39.87 39.72 42.42 44.72 45.04 42.99 40.96 40.28 43.84 47.21 45.28 44.11 45.03 47.83 50.19 49.48 50.31 50.34 49.65 50.86 50.64 51.70 53.82 54.04 55.83 56.37 56.38 56.32 56.07 56.93 57.30 56.71 57.94 57.18 57.46 57.68 58.24 58.72 59.65 60.15 61.91 60.93 59.27
40.56 37.84 43.94 47.96 46.90 44.70 42.51 39.86 40.27 44.73 47.27 44.83 44.01 44.12 47.39 48.84 49.53 49.92 50.98 50.74 49.82 51.39 52.52 53.62 53.91 56.11 57.05 56.08 55.88 56.21 56.57 56.80 57.90 58.20 57.70 58.68 58.02 58.51 59.01 58.83 59.66 61.13 61.91 60.62
38.46 41.73 45.76 46.37 44.61 42.57 41.98 39.72 40.46 41.05 44.98 46.36 44.16 43.09 45.50 49.19 49.61 50.98 51.08 50.69 50.86 51.79 51.95 52.64 54.00 55.24 55.23 55.38 56.42 56.55 56.59 57.75 59.23 58.78 58.26 57.82 57.36 58.02 57.93 57.48 58.36 59.36 60.85 62.28
38.93 43.07 43.55 42.69 42.43 42.14 37.82 44.31 43.91 43.14 40.57 35.05 43.80 33.92 41.59 45.35 47.32 48.56 49.48 48.44 49.71 51.16 52.93 53.30 53.56 52.55 54.56 55.22 56.95 56.56 57.96 58.75 58.77 58.92 57.59 55.94 55.20 55.10 56.30 56.77 57.47 57.93 60.32 61.43
37.83 40.26 40.55 40.74 41.94 44.12 41.25 46.00 44.37 43.99 40.41 38.01 41.19 36.16 40.15 43.52 44.69 46.58 48.40 48.57 48.96 50.87 52.91 52.68 52.91 53.52 53.54 55.42 55.95 57.02 58.01 58.69 58.54 58.40 57.50 56.26 55.01 56.00 56.38 56.14 56.80 56.72 58.94 59.84
40.68 44.96 43.44 42.89 45.57 45.74 45.28 43.10 41.78 41.14 38.58 33.57 39.66 37.69 37.35 41.53 44.99 46.94 48.09 49.49 49.72 50.63 52.06 51.83 52.93 53.42 53.77 54.83 56.07 57.01 58.28 58.20 58.37 58.23 57.28 56.22 55.51 54.78 54.10 55.01 55.84 57.15 58.09 58.63
39.22 40.44 42.90 44.40 40.77 42.77 41.17 35.78 28.68 26.97 29.09 30.84 40.37 37.24 41.13 44.46 47.45 48.54 48.55 49.17 49.83 51.51 51.97 52.29 52.62 52.67 52.51 54.61 56.16 56.75 57.44 57.10 58.02 58.07 57.40 56.87 56.09 55.39 54.60 55.47 56.08 56.08 56.83 57.07
34.27 32.73 41.22 44.28 41.21 38.86 39.38 38.88 31.36 25.81 27.83 32.66 40.58 35.77 40.94 47.59 49.76 49.74 50.01 49.89 50.92 51.24 52.32 52.58 52.83 53.04 53.39 54.93 56.19 56.84 57.00 56.15 57.44 57.83 57.33 57.14 57.18 56.34 56.25 57.68 57.41 56.95 57.19 57.19
34.87 35.18 44.09 44.92 44.66 42.92 38.19 36.10 41.24 34.68 35.15 32.45 35.85 40.52 45.76 47.50 47.93 48.83 49.39 50.12 49.63 51.42 52.08 52.58 52.94 52.98 53.58 54.10 55.60 56.44 55.54 55.64 57.32 57.77 57.48 57.24 57.74 57.39 58.67 58.05 57.22 58.09 58.35 60.16
38.02 32.79 42.01 43.82 45.26 44.06 39.62 41.58 34.18 33.27 27.86 27.83 34.12 36.46 38.86 43.45 45.94 48.09 48.39 48.24 49.62 50.74 51.69 52.99 52.87 52.14 53.91 54.47 54.84 55.78 55.45 55.39 57.36 57.21 56.93 58.26 58.13 58.63 58.89 58.41 58.64 57.83 57.62 58.14
39.01 35.63 37.64 41.57 39.92 39.33 37.13 37.24 36.40 36.87 35.13 29.57 28.69 34.43 42.84 44.77 46.53 47.78 48.26 48.95 49.88 51.15 52.42 53.24 52.89 52.38 53.97 53.55 53.48 55.21 54.80 55.86 56.14 56.58 56.28 57.92 57.98 58.32 58.11 57.66 58.02 58.46 58.18 59.01
38.29 35.22 33.05 37.06 40.97 45.12 42.34 38.78 38.35 35.71 31.72 35.78 34.33 36.59 45.87 45.88 46.94 49.80 48.97 50.00 49.73 51.51 52.89 53.17 52.27 50.79 52.11 52.49 52.96 54.42 54.31 55.50 55.39 56.30 56.22 57.54 58.30 58.21 57.10 57.38 58.24 58.50 58.36 59.49
38.69 34.34 30.98 32.38 37.46 40.64 40.03 40.80 41.04 37.88 36.50 34.16 35.05 37.90 45.71 47.28 46.65 49.81 48.60 49.92 50.76 51.14 51.31 51.21 50.69 51.32 52.35 51.77 53.74 53.98 54.40 54.70 54.77 54.88 56.64 57.25 57.81 57.57 56.62 57.56 58.26 58.78 59.12 59.23
40.03 34.76 34.88 32.18 35.05 39.38 36.87 40.39 40.47 39.67 35.99 36.73 38.23 38.40 43.29 46.27 48.01 49.03 49.30 49.74 50.50 51.83 52.65 52.11 51.50 51.63 52.36 52.89 54.24 54.01 54.03 53.98 54.56 54.12 56.61 56.41 55.94 56.66 57.38 57.45 58.43 58.63 59.55 59.42
34.94 29.47 35.85 39.24 40.85 40.69 40.66 40.32 41.06 39.90 40.51 38.01 40.74 40.90 44.12 46.68 48.02 50.59 51.05 49.74 50.52 51.10 51.94 52.58 51.72 51.30 51.54 51.61 53.36 54.68 54.20 53.94 54.21 54.64 55.95 55.01 55.63 56.80 58.13 58.54 58.43 59.05 59.52 60.04
35.39 28.74 34.74 36.32 41.06 40.87 39.02 41.10 41.73 42.14 42.60 42.34 41.84 41.45 46.45 48.59 50.79 50.32 51.05 51.18 51.28 51.83 52.94 53.41 52.83 51.95 52.07 53.12 53.54 54.86 53.91 53.73 53.98 54.45 55.57 55.50 56.17 57.43 57.56 58.01 58.07 58.25 58.22 58.88
34.28 31.52 29.92 30.18 39.62 38.63 34.77 39.66 40.50 42.29 44.86 44.45 40.55 43.33 45.79 46.08 51.11 51.15 50.71 52.15 52.32 53.01 53.54 53.62 53.09 52.56 52.94 53.73 54.79 53.68 53.64 53.96 53.76 53.59 55.68 55.91 56.72 57.16 55.73 58.05 57.31 56.10 54.99 55.84
34.24 30.89 31.02 27.89 34.28 27.13 39.32 44.18 44.08 42.82 44.90 45.56 43.80 45.74 47.91 48.63 52.88 53.75 54.31 53.01 52.91 53.80 54.17 54.57 54.32 53.17 53.00 54.64 54.58 53.91 53.11 54.64 54.16 53.28 55.57 55.21 56.89 55.62 54.99 56.04 55.05 53.51 53.25 53.62
37.60 32.26 28.07 28.58 29.01 35.85 39.96 43.11 42.05 40.62 41.49 46.64 46.79 46.34 48.30 48.88 49.76 48.71 54.42 55.16 54.62 54.69 55.19 55.59 55.67 53.87 52.20 53.45 54.51 54.17 52.76 54.30 54.35 53.71 54.48 54.66 56.82 55.39 54.97 55.03 53.33 52.48 52.77 53.19
39.57 35.83 31.02 32.00 27.68 27.06 38.00 44.42 47.05 46.11 39.92 46.23 46.98 46.02 46.77 48.25 46.02 46.71 52.61 55.24 54.94 55.30 55.59 55.48 55.56 53.80 52.27 53.15 54.34 53.55 52.16 53.81 53.86 54.28 54.81 54.49 56.29 55.64 55.06 54.52 53.45 52.64 52.10 53.06
32.05 31.67 29.04 30.87 29.37 36.01 42.28 43.93 48.09 38.84 38.42 47.92 47.30 46.98 45.54 48.03 50.67 51.40 54.41 55.13 55.76 55.30 54.70 55.29 54.98 53.32 53.33 53.38 54.73 53.13 52.00 53.26 55.11 55.62 54.89 53.81 54.89 55.10 54.96 54.66 54.22 53.07 52.61 52.42
32.36 33.31 30.28 32.71 31.76 30.89 45.27 44.21 39.40 42.43 46.25 49.51 48.33 46.93 47.01 49.77 49.03 49.73 54.36 54.82 55.03 53.71 53.92 55.29 54.38 53.45 53.70 54.45 54.98 52.99 51.81 54.30 55.04 55.13 54.65 53.29 53.23 56.01 55.72 54.82 54.61 54.06 52.56 51.28
31.67 35.13 33.84 36.40 38.69 42.28 43.83 41.66 44.42 45.00 43.91 48.77 50.65 51.35 47.88 49.12 48.57 50.17 53.37 54.37 55.05 55.05 55.55 56.02 54.81 53.11 53.43 54.78 55.71 53.20 53.29 52.92 53.97 53.94 53.41 52.13 52.65 53.32 55.14 54.29 54.43 54.02 52.56 51.64
37.60 41.18 37.57 37.15 43.88 43.39 42.87 44.24 44.84 45.88 44.81 46.41 51.80 53.18 50.70 48.37 49.28 50.53 54.34 54.62 54.97 55.26 55.28 55.95 54.52 53.13 52.85 54.82 55.76 55.56 53.68 53.37 53.76 52.63 52.25 51.83 52.60 51.84 54.52 55.25 55.34 55.45 53.85 52.52
37.19 39.44 37.27 37.73 41.78 43.01 42.99 43.90 44.58 45.92 46.96 46.49 50.13 54.12 53.19 49.11 49.36 52.01 53.44 55.36 55.75 55.72 56.13 56.21 54.73 53.87 53.80 55.01 55.64 55.29 54.29 53.90 52.67 52.44 51.42 51.48 53.16 53.21 54.64 55.61 55.54 55.84 55.85 55.21
40.31 38.00 36.56 35.68 42.88 41.35 41.60 44.45 45.84 45.19 45.42 46.59 47.16 53.63 54.13 52.19 49.82 50.48 53.81 56.10 56.39 55.94 56.41 56.13 54.99 54.74 54.81 55.35 55.35 55.59 55.49 54.73 53.08 51.75 50.98 51.17 52.79 53.74 54.88 55.15 52.90 43.03 46.53 45.75

GFSCGP_sfc_wetblb_024.txt.gz
Wetbulb
40.67 37.97 37.71 40.29 42.20 41.49 40.89 38.91 38.19 42.09 45.97 43.28 41.94 42.45 45.93 48.78 47.43 47.24 48.64 49.78 50.51 49.82 51.03 51.80 52.48 55.28 56.29 57.10 57.22 56.67 56.95 57.27 56.64 57.38 57.56 57.82 58.56 58.98 59.36 60.07 60.96 61.35 61.77 61.36
38.37 35.95 41.59 44.09 43.72 42.59 41.40 39.43 39.15 43.86 45.82 43.35 42.57 42.22 45.53 47.57 47.65 47.71 49.21 49.99 49.32 49.65 51.51 51.70 51.94 54.39 56.43 56.97 56.55 56.28 57.39 56.76 57.02 58.60 57.92 59.02 58.77 59.01 59.39 59.87 60.37 61.39 61.86 61.13
36.16 39.42 43.79 44.13 42.31 41.11 41.17 39.80 40.72 40.84 42.59 42.86 41.19 40.05 42.77 46.80 47.99 48.65 49.69 50.44 49.77 49.76 50.68 50.57 52.74 54.18 55.41 55.63 55.87 56.10 56.58 57.08 58.86 58.81 58.38 58.30 57.80 58.04 58.27 58.70 59.42 60.26 61.30 61.58
37.25 41.67 41.44 41.84 41.59 42.82 37.82 44.56 44.51 42.88 38.59 32.75 40.95 31.50 40.64 44.46 45.81 47.26 48.87 47.43 48.02 49.84 51.21 51.38 52.88 53.31 55.02 55.47 56.36 56.26 57.17 58.42 58.99 58.86 57.94 56.59 56.07 55.72 57.07 57.99 58.63 58.74 60.00 61.62
35.45 38.51 38.41 39.12 41.72 45.04 40.76 45.81 43.95 42.30 37.37 34.96 37.56 34.21 38.76 42.40 43.30 45.77 47.85 48.56 47.71 49.73 50.62 51.11 52.92 54.48 55.01 56.26 55.85 56.80 57.86 58.52 58.46 58.78 57.74 56.48 55.95 56.64 57.15 57.27 57.66 58.44 59.84 61.06
38.87 43.55 41.73 41.61 44.23 45.81 45.65 42.72 40.16 38.35 35.61 29.42 35.95 36.12 36.34 39.49 44.49 45.75 47.80 48.34 49.33 50.04 50.21 51.12 53.09 53.85 53.90 55.40 55.78 56.95 57.99 58.11 58.26 58.40 57.62 56.66 55.95 55.72 55.89 56.76 57.41 57.87 59.36 60.01
37.13 38.10 40.77 43.20 40.26 42.41 40.77 35.58 26.92 25.38 26.10 27.12 38.40 35.20 38.53 43.23 45.63 47.35 47.87 47.72 48.80 50.26 50.25 51.31 52.36 52.50 53.29 54.70 55.75 57.03 57.49 57.49 58.06 58.37 57.73 57.26 56.74 56.65 56.83 57.32 57.69 57.53 58.39 58.83
31.89 30.23 39.41 42.58 39.98 38.57 38.99 36.19 29.21 23.99 25.72 31.34 38.94 33.54 38.69 46.39 49.19 48.98 48.96 48.42 49.63 49.71 50.34 51.67 52.15 52.19 53.88 55.06 56.08 57.12 56.95 57.21 57.91 58.33 57.71 58.01 57.75 58.00 57.70 59.20 58.69 58.19 58.79 58.79
33.31 33.51 41.92 43.13 43.23 42.99 36.81 35.21 37.98 32.01 33.33 30.45 33.76 38.32 43.71 46.10 46.71 47.70 47.27 48.58 48.45 49.49 49.85 51.03 51.72 52.34 53.40 54.93 55.74 56.31 56.49 56.62 57.48 58.09 57.90 57.87 58.90 59.13 59.03 59.13 59.82 59.39 59.97 60.29
36.45 31.31 40.50 42.31 42.97 43.28 39.81 40.95 32.68 31.44 25.97 25.28 32.33 35.05 37.82 42.92 45.56 47.71 47.43 47.26 47.95 49.48 50.00 51.39 51.93 51.97 53.51 55.06 55.68 55.88 56.05 56.23 57.54 57.68 58.11 58.50 59.41 60.13 59.75 60.04 59.23 58.90 59.51 60.02
36.97 33.91 35.56 39.92 38.43 36.44 34.67 35.87 33.42 34.69 31.74 27.30 27.29 32.89 41.87 44.40 45.75 46.81 47.09 47.63 48.40 49.89 50.88 51.83 52.12 52.52 53.27 54.03 54.68 55.55 55.12 55.51 57.15 57.01 57.11 58.49 59.37 59.27 58.65 59.13 59.29 59.51 59.96 60.02
36.83 32.64 31.54 36.11 39.94 43.43 41.09 36.48 36.01 33.19 30.24 32.03 32.31 33.36 44.41 45.26 45.65 46.99 47.69 48.35 48.70 50.30 51.49 52.13 51.96 51.51 52.48 53.16 53.60 55.07 55.20 55.49 56.89 57.00 57.24 58.50 59.26 59.16 57.98 58.89 59.28 59.93 59.85 60.54
37.40 31.83 28.16 30.75 36.10 38.81 38.71 38.87 38.13 35.19 33.74 32.74 30.07 32.83 45.21 45.92 47.08 46.42 47.26 48.30 49.53 50.78 50.57 50.61 50.32 51.11 52.57 52.50 53.23 54.46 55.12 55.45 55.90 56.03 57.14 58.18 58.58 58.37 57.90 58.84 59.48 60.01 60.11 60.33
40.22 32.08 31.27 29.06 32.60 36.39 36.03 38.43 39.31 34.99 29.93 33.12 37.37 37.28 43.50 45.66 45.85 46.98 47.63 48.24 49.03 50.57 51.41 51.60 51.12 50.78 52.09 52.94 53.84 54.45 54.65 55.42 55.25 55.99 57.04 57.23 57.72 58.39 58.13 59.02 59.73 60.16 60.46 60.08
36.44 27.74 32.66 34.20 37.33 38.71 37.77 38.85 38.74 37.49 38.22 34.57 37.16 38.93 42.51 44.78 46.12 47.75 48.28 48.42 49.55 50.22 51.04 51.59 51.33 50.66 50.87 51.59 53.52 54.48 54.63 54.51 54.84 55.48 56.68 56.13 57.13 58.24 59.18 59.28 59.48 60.17 60.72 60.98
37.59 27.78 31.85 29.97 37.77 38.86 37.62 38.58 39.95 39.88 39.22 38.70 39.31 38.88 44.54 46.65 48.99 48.63 49.25 49.76 49.95 50.87 51.95 52.52 52.32 51.83 51.02 52.62 53.70 54.60 54.28 54.07 54.67 55.84 56.18 55.90 57.22 58.09 58.87 58.89 59.12 59.32 60.23 61.40
34.03 29.91 27.64 25.30 33.23 34.61 32.62 38.52 38.44 39.69 41.73 40.87 37.64 42.58 44.21 45.96 48.65 48.70 48.81 50.70 51.14 51.79 52.79 53.04 52.91 52.60 52.28 52.85 54.58 54.08 54.10 54.10 54.13 55.62 56.00 56.35 57.51 57.49 58.54 58.91 58.09 57.23 57.17 58.97
33.87 31.30 28.96 25.83 31.34 26.30 37.25 42.38 42.95 39.97 41.27 42.32 42.06 43.84 45.99 47.23 50.50 50.80 52.27 51.83 51.77 52.76 53.45 53.81 53.65 53.24 53.11 53.67 54.08 54.58 53.74 54.32 53.89 54.60 56.10 56.36 57.84 56.07 57.81 57.30 55.92 55.13 55.43 56.82
37.63 33.95 27.26 25.72 28.70 33.86 37.94 40.33 39.18 37.28 38.70 43.77 43.69 45.57 46.13 47.75 49.70 49.45 52.72 53.52 53.59 53.93 54.84 55.05 54.75 53.74 52.36 53.48 54.10 54.45 53.19 53.90 53.93 53.91 55.67 55.88 57.14 55.77 56.50 55.78 54.46 54.56 55.39 55.65
37.70 36.39 31.79 29.06 28.19 26.41 36.33 42.25 44.74 43.11 34.90 43.51 46.68 45.11 45.37 47.80 45.29 48.27 51.99 53.68 53.32 54.08 54.90 54.97 54.34 52.95 52.66 53.97 54.31 53.75 53.06 53.57 53.50 54.20 55.55 55.82 56.95 55.98 55.81 55.29 54.31 54.44 55.21 55.25
31.90 32.12 28.55 27.70 26.29 32.41 40.58 42.25 44.15 34.21 33.63 42.64 44.97 48.50 46.23 46.33 50.30 53.06 53.26 54.11 54.84 54.96 54.52 55.11 53.96 52.76 52.93 53.85 54.63 53.52 53.12 53.43 55.15 55.29 55.51 55.34 56.69 56.21 56.47 55.17 54.97 54.22 54.56 54.54
33.53 31.79 28.91 29.61 28.00 29.22 42.07 41.64 35.83 39.29 42.26 43.37 43.75 44.92 47.37 48.60 49.73 50.19 53.06 54.39 53.41 53.29 53.71 54.98 53.75 52.85 52.86 54.23 54.90 53.46 52.78 55.44 55.19 55.26 55.05 54.80 55.81 56.93 56.23 55.62 54.60 54.30 53.81 53.44
31.91 35.70 33.70 35.74 36.51 43.12 43.16 43.27 44.83 43.09 41.93 43.35 43.66 44.95 46.08 50.76 50.64 48.75 51.58 52.95 53.57 54.23 54.87 55.45 54.66 52.47 52.53 54.23 55.33 53.40 53.93 54.17 54.76 54.79 54.03 53.67 55.05 55.95 56.06 55.58 54.46 53.32 53.22 52.94
37.83 40.19 37.26 36.94 42.22 41.68 43.67 45.90 45.78 44.57 43.52 44.90 45.72 46.10 46.69 51.20 51.66 48.32 51.03 52.66 53.62 54.35 54.68 55.15 54.02 52.26 51.86 54.14 55.45 55.54 53.76 54.95 54.79 53.96 53.27 52.78 53.78 54.27 55.17 56.35 56.06 54.65 53.05 52.70
37.16 39.01 37.49 36.92 41.27 42.10 44.64 44.37 44.02 44.30 45.63 45.25 46.26 47.15 51.67 52.92 51.29 48.82 50.79 52.53 54.04 54.33 54.76 55.06 54.12 53.22 53.14 54.38 55.11 54.50 53.87 54.77 54.02 53.79 53.15 52.80 53.51 54.58 54.95 55.81 56.02 56.47 55.79 53.63
39.52 36.32 36.33 35.87 41.14 41.47 41.28 44.63 45.43 44.15 44.59 45.04 45.58 46.80 52.66 52.57 50.61 49.76 50.79 54.06 54.31 54.33 54.79 54.69 54.39 53.93 53.75 54.72 55.23 54.05 54.12 54.68 53.78 52.48 52.44 52.72 53.05 53.64 55.24 55.09 53.62 42.91 47.70 46.24

GFSCGP_sfc_wetblb_027.txt.gz
Wetbulb
44.14 40.88 40.26 42.96 43.82 44.99 45.28 44.03 43.85 45.41 47.77 46.18 47.07 47.75 50.02 52.55 52.65 52.71 53.77 54.71 56.15 57.63 59.92 57.65 58.04 59.73 60.66 61.97 62.57 63.92 64.10 65.27 64.59 63.88 63.73 64.25 64.18 65.64 65.76 66.17 66.42 66.28 66.26 66.32
40.88 38.87 44.14 46.36 45.45 43.12 42.65 41.88 42.40 45.48 47.28 47.07 47.38 46.82 49.90 51.44 51.63 52.79 53.46 54.59 55.92 57.86 58.21 57.00 57.28 59.46 60.57 61.51 62.50 63.33 64.42 64.48 64.59 64.87 65.16 66.35 66.53 66.26 65.79 66.05 66.15 65.93 66.23 66.36
39.93 42.26 44.49 43.62 43.95 42.22 42.19 41.49 42.26 43.13 46.32 47.67 46.66 45.01 47.48 50.76 52.45 52.94 54.13 56.24 57.15 57.36 57.74 56.77 57.20 58.86 60.54 61.25 62.37 63.66 64.39 64.38 64.97 65.86 65.48 65.71 65.46 64.95 64.92 65.33 65.42 65.97 64.97 65.59
40.90 44.76 42.72 41.72 41.72 43.94 39.92 45.48 44.65 43.51 42.11 40.36 46.22 38.81 45.99 48.48 49.10 51.64 53.83 55.82 56.88 56.69 56.99 57.47 57.70 58.87 60.15 61.41 63.31 64.13 64.44 64.38 65.49 66.13 65.48 65.04 63.16 62.52 64.23 64.38 64.61 64.86 64.69 64.78
38.81 40.45 40.74 40.46 41.83 44.76 42.51 46.48 44.69 43.67 41.98 42.44 42.90 39.91 43.78 48.41 47.04 49.77 51.85 54.97 56.84 55.75 57.46 57.31 58.07 59.40 60.87 62.03 62.62 63.63 64.16 65.33 65.63 65.84 65.51 63.87 62.98 63.94 64.30 63.90 63.45 64.59 65.69 64.68
42.19 44.81 43.42 43.31 44.75 45.92 47.10 45.60 45.31 45.04 43.46 36.79 42.34 41.19 41.01 44.68 46.80 49.34 52.26 55.20 55.55 55.96 56.52 57.57 59.01 60.12 61.03 62.34 62.36 63.42 64.26 64.89 65.40 65.43 65.00 63.85 62.85 62.49 63.43 63.78 64.26 64.22 64.43 64.06
40.12 40.71 43.61 44.38 42.02 45.75 45.97 42.93 35.91 34.55 35.27 35.79 43.13 40.39 41.95 47.91 49.69 51.20 52.81 55.66 56.09 56.52 56.65 57.08 57.98 59.18 60.40 60.98 62.06 63.13 64.18 63.98 64.87 64.95 64.43 63.73 63.28 62.89 63.03 63.67 63.76 63.41 63.33 63.95
35.37 33.76 41.12 43.97 42.58 42.03 43.48 43.39 38.18 31.33 32.72 36.78 41.84 36.95 40.87 50.04 52.03 52.70 54.76 55.52 56.18 56.36 57.08 57.38 58.56 59.64 60.23 61.27 62.20 62.95 63.75 64.15 64.70 64.78 64.39 64.40 63.79 64.76 64.80 64.58 64.62 64.27 64.33 64.27
36.92 37.18 44.33 43.94 44.80 44.75 42.55 40.08 45.62 40.61 40.09 38.61 40.59 42.53 48.36 51.64 51.85 52.80 53.49 54.27 55.38 56.24 56.64 57.47 58.69 59.64 60.59 61.30 62.40 63.28 63.61 64.32 64.66 64.64 64.46 64.21 65.03 64.85 64.96 64.40 65.27 65.38 65.22 64.64
39.41 35.85 42.99 43.45 44.94 46.21 44.77 46.05 37.90 40.20 33.11 31.35 37.33 40.23 42.36 48.65 50.49 52.83 53.49 54.19 54.96 56.20 56.31 57.26 58.14 59.30 60.82 61.88 62.93 63.44 64.11 64.00 64.37 64.56 64.35 64.58 65.04 65.13 64.36 65.45 64.26 64.91 65.23 65.35
40.57 39.34 40.27 43.09 40.81 40.47 41.51 41.38 42.24 42.70 40.20 34.77 34.01 39.37 50.89 51.33 52.63 53.94 55.73 55.61 55.12 55.70 56.40 57.15 58.39 59.27 60.82 61.93 62.14 62.72 63.05 62.88 63.61 64.13 63.78 64.23 64.97 64.28 63.86 65.13 64.91 65.36 65.43 65.12
39.88 39.41 37.01 39.73 44.37 45.55 43.90 42.83 42.92 37.88 35.87 39.82 39.88 39.97 50.59 52.88 52.76 54.28 55.16 54.52 55.84 56.98 57.23 57.92 58.51 59.14 59.94 60.75 61.43 62.01 62.67 62.35 63.27 63.89 63.19 64.16 64.47 63.78 63.89 64.42 64.61 65.64 64.97 64.72
39.46 37.89 35.02 37.12 41.11 44.47 41.74 42.92 44.18 43.84 43.21 38.52 36.84 40.51 50.19 51.46 52.27 53.19 55.24 54.79 55.46 56.52 56.93 57.66 58.15 58.30 59.05 60.33 60.82 61.67 62.23 62.31 63.10 63.09 63.22 64.06 63.83 63.41 63.62 64.43 64.80 65.05 65.04 64.39
40.81 36.16 36.11 35.24 38.01 41.99 39.73 41.28 42.95 42.69 38.95 39.09 39.43 41.86 47.63 49.86 51.92 53.81 54.31 55.36 56.02 56.64 56.69 57.28 57.66 58.56 59.46 60.02 60.38 61.17 61.96 62.53 62.52 62.47 62.91 63.52 63.76 63.57 63.67 64.48 64.74 64.89 64.97 64.25
38.20 32.14 35.18 36.70 37.80 39.23 40.28 41.17 41.60 40.48 41.71 38.74 40.92 42.10 46.66 49.42 52.41 54.27 54.98 55.29 55.71 56.19 56.61 57.15 57.69 58.60 59.34 59.78 60.30 61.03 61.89 61.96 62.05 61.99 62.74 62.88 63.23 64.06 64.11 64.28 64.45 64.88 64.69 64.44
38.96 33.04 35.41 35.91 39.33 39.93 38.98 41.71 42.41 42.18 42.42 42.74 43.80 44.49 49.11 52.01 53.65 54.26 54.51 55.03 55.36 56.36 57.03 57.69 58.10 58.77 59.29 59.60 59.80 60.79 61.21 61.54 61.82 61.65 61.93 62.21 63.54 63.64 63.73 64.14 64.59 64.88 64.36 62.50
36.06 35.14 33.81 34.21 37.13 38.64 36.48 41.46 42.57 42.84 44.10 44.03 41.15 45.62 49.35 50.33 52.59 55.08 55.78 55.88 56.67 57.16 57.59 57.99 58.31 58.95 59.68 60.06 60.50 60.33 61.26 61.86 61.17 61.33 61.50 62.05 62.98 63.16 63.42 63.59 63.83 64.09 63.42 64.22
36.00 34.77 35.09 33.16 36.74 30.30 42.13 47.10 46.70 44.23 45.05 46.33 46.59 47.97 49.61 50.52 52.91 56.11 58.06 57.42 57.93 58.37 58.50 58.91 59.32 59.84 60.40 60.91 60.98 61.77 61.76 60.97 60.68 60.89 60.95 61.65 62.26 62.74 63.28 63.11 62.14 62.24 62.57 62.67
40.28 36.67 33.78 31.37 34.11 38.55 42.42 43.56 42.48 43.76 44.04 46.47 48.71 48.60 49.81 51.99 53.99 54.64 58.13 59.16 59.39 60.09 60.42 60.53 60.80 60.99 60.78 60.30 61.13 61.13 60.78 60.87 60.36 60.35 60.81 61.30 62.04 62.66 62.28 61.68 61.15 62.17 63.02 63.56
39.54 39.26 35.05 33.94 29.96 32.00 39.79 44.56 46.62 46.57 40.92 45.61 46.62 47.58 50.54 52.49 46.91 50.75 58.29 59.54 59.48 60.81 61.20 60.62 60.92 61.20 60.63 60.48 61.06 60.63 60.38 60.50 60.02 60.46 60.95 61.84 62.67 62.43 62.15 62.00 61.21 62.30 63.27 63.01
32.64 33.55 30.73 32.63 32.34 36.87 43.40 45.53 47.05 39.16 39.94 45.66 46.65 47.30 48.29 49.72 53.27 56.71 56.27 60.62 60.79 60.71 60.96 61.42 60.79 60.17 60.53 60.92 60.66 60.08 60.18 60.06 61.35 61.53 61.51 61.52 62.76 62.13 63.15 61.89 61.78 62.84 62.85 62.87
33.65 32.35 30.86 32.89 31.77 32.02 45.21 45.92 40.80 43.44 46.41 46.48 47.28 47.80 48.15 49.91 51.43 53.19 56.13 57.33 60.07 59.66 60.11 60.61 59.76 59.84 60.86 60.69 60.47 60.23 59.78 61.53 61.92 61.51 60.91 61.06 62.74 61.41 61.67 61.87 61.48 62.39 62.92 62.52
33.79 37.71 35.50 37.11 38.67 44.52 45.26 45.45 48.60 47.84 46.21 46.94 47.49 48.51 49.59 50.41 51.96 53.79 55.99 57.40 59.68 60.18 60.26 60.77 60.16 59.88 59.83 60.50 61.02 60.29 60.89 61.65 61.23 61.01 60.89 60.97 62.47 61.90 62.22 61.49 60.81 60.99 62.17 61.72
38.60 40.52 39.01 38.55 41.81 43.08 43.63 46.02 46.92 47.43 47.41 48.71 49.33 49.29 50.62 51.17 55.34 56.58 57.99 57.89 58.53 59.88 60.28 60.56 60.40 59.15 58.43 59.96 60.99 61.91 61.57 61.42 60.88 60.66 60.76 60.84 61.22 61.49 62.17 61.75 60.90 60.17 60.67 60.54
37.26 39.23 38.38 38.14 41.96 43.17 44.55 44.71 45.58 46.68 48.53 48.79 50.05 50.73 51.75 53.91 55.15 56.38 56.80 57.68 58.14 59.52 60.28 60.67 60.38 60.18 59.38 59.83 60.76 61.92 61.39 61.21 60.59 60.84 60.38 60.07 60.58 60.95 61.50 61.84 61.15 60.34 61.32 59.69
40.48 39.75 38.26 38.21 42.44 41.69 41.46 44.95 46.16 46.54 47.68 48.86 48.98 49.85 53.21 55.28 55.94 57.04 57.11 57.51 58.31 59.55 59.98 60.05 60.66 60.63 60.06 59.83 60.50 61.21 61.12 61.01 61.17 60.28 59.73 59.40 59.52 60.27 60.90 61.01 60.06 43.61 49.07 46.86

GFSCGP_sfc_wetblb_030.txt.gz
Wetbulb
47.70 43.47 42.76 46.07 48.46 49.83 49.76 49.34 48.88 50.77 53.53 51.47 50.69 51.35 53.37 55.80 56.14 56.36 57.21 57.72 57.89 58.92 62.17 63.75 64.01 63.92 64.33 65.66 66.07 66.63 66.97 68.41 67.86 67.07 66.11 65.95 65.05 66.60 67.67 68.20 69.04 68.70 68.73 67.55
45.52 41.72 47.11 48.56 48.77 47.57 47.80 47.35 48.23 51.07 52.68 51.93 50.32 50.41 54.07 55.85 56.24 56.68 56.93 57.27 57.95 59.43 61.81 62.98 62.90 63.50 64.68 65.05 66.10 66.73 67.22 68.08 68.00 67.18 67.34 66.68 66.84 67.86 68.12 68.80 68.44 68.46 68.24 67.25
43.32 44.87 47.31 46.65 46.74 46.11 46.20 45.60 47.01 47.41 50.67 51.67 49.95 48.01 50.93 54.80 56.47 57.20 57.37 57.70 57.86 58.12 61.36 62.79 62.23 63.66 64.71 64.87 65.88 66.45 67.64 68.14 68.38 68.55 67.63 68.00 67.88 67.45 66.18 66.74 67.03 67.65 67.75 67.56
43.99 47.73 46.19 45.46 44.69 46.95 44.05 48.15 47.27 46.70 45.61 42.11 49.26 42.67 50.11 53.35 54.37 55.63 56.47 57.37 57.25 59.65 61.63 62.54 62.92 63.53 64.38 64.94 66.31 67.18 67.71 68.04 68.03 68.40 67.49 67.03 65.16 64.08 66.96 66.12 67.98 66.74 67.43 66.77
42.45 44.15 44.95 44.73 45.01 47.45 45.71 48.90 47.72 47.17 45.61 45.52 46.04 43.86 48.46 52.87 51.69 53.66 56.10 56.92 57.58 60.93 61.17 62.42 63.02 63.83 64.49 65.27 66.04 67.11 67.68 67.38 68.12 68.34 67.97 66.39 65.72 65.91 66.86 67.15 66.00 67.50 67.23 65.82
44.48 48.34 46.86 46.75 47.83 47.78 48.35 47.38 47.76 47.97 46.16 40.30 44.94 44.46 45.90 49.79 52.42 54.34 56.69 55.60 56.97 61.30 61.81 62.83 63.59 64.05 64.35 65.51 66.16 66.69 66.61 67.38 68.15 68.23 68.08 66.53 66.02 65.48 65.67 65.99 66.05 66.69 67.65 66.72
43.05 43.58 46.52 47.61 45.57 47.68 47.15 45.32 40.00 38.46 39.19 38.59 47.13 45.27 46.79 52.55 53.99 55.16 54.63 55.41 60.26 61.64 62.15 62.18 62.46 62.95 63.75 64.47 65.39 65.66 66.42 66.36 67.64 67.57 67.30 66.75 66.51 65.68 65.77 65.63 66.36 65.74 66.49 65.82
37.07 36.73 43.64 46.78 45.76 44.65 45.30 46.19 41.52 35.36 37.94 41.68 47.48 42.73 47.76 52.59 55.24 56.07 55.63 56.31 60.68 61.47 62.36 62.48 62.82 63.40 63.63 64.23 65.00 65.31 65.81 65.70 66.63 66.92 66.69 66.89 67.02 66.87 66.53 66.80 67.08 67.05 66.36 65.56
37.54 39.53 46.63 46.73 47.25 48.07 45.46 43.38 48.70 45.37 46.54 42.47 45.76 48.24 50.59 51.95 52.50 53.68 54.42 55.36 59.43 61.34 62.04 62.27 63.15 63.73 63.85 64.35 65.10 65.50 65.46 65.56 66.14 66.50 66.63 67.02 67.13 66.81 66.79 66.91 68.13 68.05 66.69 66.05
41.52 37.66 45.93 45.65 47.46 48.14 47.88 49.38 43.07 45.05 38.35 37.16 42.59 43.84 44.12 49.51 51.59 53.72 56.04 56.83 59.21 61.43 61.73 62.40 63.01 63.50 64.33 65.03 65.56 65.77 65.22 65.22 66.07 66.58 66.46 66.66 66.79 67.22 67.57 68.06 66.86 66.33 66.84 66.18
43.23 41.20 43.38 45.62 43.66 43.76 45.48 45.14 46.83 47.24 45.12 40.17 39.15 42.36 50.11 50.67 53.49 55.56 57.35 58.86 60.54 60.94 61.57 62.16 62.83 63.64 64.42 64.98 65.05 64.56 64.89 65.33 65.82 65.91 66.40 66.36 66.76 67.04 67.46 67.74 66.82 66.45 67.08 66.43
42.95 41.76 38.67 42.62 47.08 48.65 47.59 46.49 47.15 42.15 41.16 44.18 44.00 42.78 52.91 54.76 56.50 56.67 57.78 60.24 60.84 61.54 61.88 62.18 62.67 63.38 63.80 64.31 64.10 63.98 64.50 64.46 65.37 65.77 65.50 65.85 66.52 66.87 67.31 66.27 66.17 66.34 66.13 66.50
39.60 40.46 37.54 40.44 44.53 46.64 45.35 46.73 47.94 48.19 48.49 43.25 40.51 41.61 53.01 55.08 56.02 56.92 58.62 59.40 60.34 61.08 61.44 61.93 62.39 62.55 63.20 63.77 63.18 63.05 63.88 63.99 64.59 64.67 64.89 65.69 65.73 66.53 65.89 66.07 66.23 66.47 66.09 65.52
41.97 40.13 40.42 38.32 41.60 44.72 42.86 44.96 47.10 46.72 43.12 43.73 43.39 44.36 50.60 53.43 54.91 56.85 58.94 59.76 60.39 61.06 61.19 61.74 61.81 62.40 63.21 63.38 62.50 62.58 63.30 64.18 64.07 63.80 64.22 65.12 65.46 65.95 66.17 66.50 66.00 66.35 66.23 65.61
41.81 37.46 41.30 42.33 42.37 42.62 44.84 43.86 44.77 44.67 45.66 42.98 44.88 44.32 48.60 53.84 53.90 57.02 59.18 59.89 60.02 60.42 60.81 61.32 61.50 62.37 63.18 62.89 62.12 62.64 63.25 63.80 63.98 63.22 63.80 64.75 65.65 66.07 66.21 66.33 66.02 66.11 65.93 65.34
41.60 36.88 41.07 39.18 42.66 42.66 41.90 44.41 45.26 45.14 45.89 45.73 46.00 45.42 51.14 52.94 53.23 55.18 58.08 59.36 59.61 60.50 60.98 61.47 61.93 62.57 62.90 62.54 61.77 62.41 62.76 63.23 63.70 63.05 63.24 64.66 65.56 65.30 66.14 66.24 66.17 65.68 64.77 64.70
38.14 37.86 38.72 36.16 42.24 41.39 39.29 43.96 45.18 45.81 46.94 46.58 43.72 48.21 51.41 51.73 52.48 55.19 57.60 59.34 60.31 61.15 61.38 61.54 62.08 62.86 63.59 62.90 62.33 62.36 62.76 63.60 63.18 62.55 63.16 64.37 65.33 64.98 65.67 66.02 65.71 64.92 64.91 62.44
38.06 37.59 38.51 38.16 41.14 32.58 45.31 50.02 48.69 46.94 47.38 48.40 48.64 49.93 51.30 52.22 54.51 55.88 57.67 59.97 60.88 62.05 62.19 62.66 62.96 63.53 64.44 63.92 62.85 63.24 63.24 62.93 62.58 62.29 62.08 64.43 64.71 64.27 65.51 65.89 65.84 66.14 64.53 62.85
42.26 38.45 36.36 35.99 37.42 41.73 44.74 46.93 47.12 46.45 46.74 50.60 50.57 51.10 51.52 52.88 54.08 54.27 57.48 59.24 61.76 63.40 64.14 64.07 64.44 64.60 64.97 63.72 63.27 62.97 62.71 62.32 61.98 61.85 61.67 63.64 64.54 64.25 64.73 64.14 64.97 66.46 66.23 65.32
41.40 41.07 36.04 37.76 35.45 34.19 43.85 47.81 50.31 49.85 44.64 49.72 50.48 51.38 52.44 54.57 50.12 54.34 60.19 62.03 61.43 63.90 65.09 64.69 65.00 64.96 65.07 64.16 63.65 62.90 62.30 61.77 61.27 62.17 61.93 63.20 64.29 64.35 64.10 63.98 65.12 66.72 66.67 65.63
34.45 35.68 32.54 33.86 37.85 41.49 46.90 49.38 50.53 41.45 43.39 50.21 51.20 51.86 52.29 52.11 55.61 58.30 59.49 60.07 62.65 63.70 64.88 65.66 65.27 64.62 65.13 64.48 63.64 62.33 62.12 61.64 62.11 62.81 62.64 62.79 64.86 64.44 64.93 64.56 66.28 66.53 66.20 65.40
35.15 32.93 32.61 33.45 35.27 35.07 48.31 48.93 45.26 47.60 50.89 51.16 52.20 53.19 52.97 54.70 56.03 57.38 58.69 59.22 61.35 62.96 64.26 65.17 64.58 64.80 65.49 64.63 63.53 62.23 61.81 63.24 62.83 62.95 62.59 62.57 64.89 63.94 64.32 64.35 66.26 66.43 65.77 64.80
36.05 39.10 37.89 38.83 38.52 45.61 47.73 48.85 50.59 50.92 50.68 51.53 52.33 53.67 54.18 54.83 56.35 58.13 59.72 60.42 61.35 62.98 63.92 64.97 64.76 64.87 65.22 64.63 63.79 62.30 62.86 63.35 62.73 62.87 62.83 62.78 63.75 64.22 64.07 63.60 65.02 65.30 65.92 64.52
41.05 44.08 40.09 42.64 44.98 46.17 44.88 48.45 50.05 50.90 51.28 52.91 53.88 54.64 55.64 56.09 57.67 59.01 60.27 61.59 62.30 61.88 63.51 64.71 64.74 64.33 64.10 64.63 64.04 63.60 63.68 63.35 63.09 62.72 62.99 63.01 63.11 63.67 64.46 63.48 63.33 64.20 64.35 63.78
37.94 39.57 40.22 42.65 45.19 47.42 45.93 46.56 48.57 49.65 51.59 52.52 54.16 54.61 55.20 57.04 58.66 59.92 60.54 61.22 62.02 62.22 63.74 64.75 64.24 64.52 64.33 64.75 64.19 64.59 63.82 63.17 63.02 63.21 63.32 63.18 62.86 62.98 64.21 64.26 62.53 61.74 64.62 61.34
42.49 40.91 38.59 38.07 43.65 44.23 45.17 46.81 48.80 48.79 48.71 51.19 52.86 53.56 55.59 57.19 58.81 60.61 61.63 62.58 62.23 62.13 63.20 64.05 64.79 64.93 64.76 64.59 64.27 64.77 64.66 63.43 63.18 62.89 63.19 62.78 61.91 62.58 62.80 63.62 62.88 43.63 47.43 48.90

GFSCGP_sfc_wetblb_033.txt.gz
Wetbulb
49.77 45.24 42.98 45.91 48.37 50.04 50.07 49.58 49.39 52.01 54.92 52.83 52.86 53.76 55.89 56.54 56.27 56.51 57.47 58.30 59.60 60.37 62.43 63.16 64.89 67.09 66.91 68.03 69.28 69.41 69.12 72.64 71.34 68.88 67.64 67.46 66.70 67.72 67.45 68.55 69.43 69.69 69.20 69.24
46.87 43.06 47.43 48.52 48.88 48.23 48.12 47.74 48.50 52.05 54.50 53.56 53.36 52.42 55.00 56.23 56.19 56.81 57.59 58.86 59.87 60.57 61.59 61.61 66.19 66.60 66.51 67.63 68.30 68.51 68.84 70.42 70.46 69.28 70.03 68.60 68.06 67.26 68.28 68.56 69.66 69.41 68.92 69.52
43.22 46.58 48.97 47.37 46.95 46.56 47.49 47.07 48.09 48.91 52.46 53.69 52.51 50.74 52.73 55.55 56.89 56.98 57.41 58.56 59.87 60.50 60.45 61.22 65.78 66.08 66.99 67.08 67.75 68.18 68.97 69.49 70.93 71.60 69.96 68.98 68.98 68.98 66.98 67.03 67.66 68.63 68.21 68.00
45.01 47.53 47.58 46.86 45.70 47.13 44.37 49.53 49.49 49.03 48.35 44.98 52.09 44.25 50.30 52.82 53.61 55.43 57.21 59.00 60.02 60.16 61.02 61.14 66.07 66.19 66.57 67.11 68.09 68.81 69.09 69.12 69.38 70.17 70.09 69.88 66.17 64.61 66.28 67.57 66.94 68.30 67.62 67.36
42.33 45.05 44.84 45.17 46.37 48.37 46.67 50.13 49.87 49.54 47.48 47.20 47.29 44.92 48.34 51.59 51.09 54.23 56.96 58.77 60.02 60.73 60.09 62.96 65.36 66.19 66.94 67.50 67.66 68.62 68.99 68.71 69.28 69.14 69.61 67.60 66.89 65.47 66.58 66.83 67.09 68.33 68.48 67.94
43.98 48.52 47.97 46.70 48.95 49.40 49.85 48.27 49.11 49.84 47.72 41.94 46.03 45.54 46.28 49.02 51.89 54.39 57.24 59.16 59.65 59.78 60.63 64.20 65.93 66.55 66.27 67.20 67.75 68.12 68.12 68.23 68.74 68.51 68.73 68.39 67.01 66.30 65.80 66.20 66.23 67.28 69.08 68.09
40.75 43.14 47.46 48.92 45.97 48.93 48.68 46.42 40.65 40.02 40.90 41.01 47.34 45.68 48.15 51.84 54.42 55.74 56.57 58.38 58.76 59.16 63.33 64.39 64.83 64.95 65.68 66.21 66.87 67.32 67.41 67.37 68.23 68.16 67.59 67.49 67.32 66.91 66.69 66.56 67.43 66.76 67.32 67.21
35.78 34.65 44.03 48.25 46.50 45.74 46.77 46.42 41.44 35.59 38.83 41.47 47.56 43.71 47.86 55.51 56.96 57.98 58.54 58.34 58.22 62.12 63.75 64.26 64.71 65.30 65.33 66.05 66.53 66.59 67.26 66.96 67.62 67.23 67.02 67.49 67.73 66.49 66.89 67.33 67.90 67.60 66.83 67.96
38.08 36.62 45.80 47.46 48.62 48.15 46.19 44.52 49.03 44.83 46.65 43.29 46.59 50.47 54.18 55.69 55.51 55.94 56.78 58.19 58.05 62.46 63.78 64.19 64.97 65.30 65.56 65.86 66.26 67.04 66.99 66.93 66.88 66.80 67.08 66.88 67.18 67.29 66.84 67.19 68.57 67.91 67.48 66.34
42.31 36.72 42.94 46.48 48.28 48.56 47.31 50.05 43.26 45.68 38.43 38.83 45.04 46.95 48.32 50.85 52.39 54.55 54.65 55.51 58.14 62.43 63.52 64.28 64.68 65.23 65.73 66.22 66.70 67.35 67.11 66.50 66.20 66.53 66.53 66.55 68.13 67.14 67.06 68.22 67.26 67.11 67.36 66.31
43.03 40.51 42.49 44.45 44.94 44.03 45.14 45.53 46.46 47.41 45.93 41.53 40.58 45.55 54.15 52.70 54.35 55.10 55.46 56.85 58.31 62.34 63.24 63.77 64.56 65.31 65.72 66.25 66.45 66.50 65.98 65.62 65.86 66.28 66.29 66.84 67.29 66.59 66.95 67.41 66.95 66.94 67.32 65.97
44.15 40.03 37.95 41.86 48.17 48.77 47.70 46.93 47.71 43.88 43.08 46.15 46.13 46.22 53.48 54.33 55.44 57.28 58.19 58.81 60.39 63.04 63.56 64.08 64.46 64.86 65.26 65.61 65.89 65.01 65.67 65.33 65.62 65.84 65.84 66.20 67.51 65.92 66.54 66.06 66.58 67.09 66.41 66.26
42.57 40.12 35.50 39.18 44.87 47.60 45.59 47.33 49.21 49.31 50.07 45.73 43.73 46.51 53.40 55.39 56.81 57.87 59.06 60.14 62.00 62.56 63.35 63.60 64.03 64.28 64.75 65.30 64.66 64.45 64.62 64.84 65.37 65.09 64.87 65.76 65.95 66.89 66.11 66.13 66.00 66.47 66.16 65.64
41.55 39.70 37.63 35.38 41.66 45.22 43.56 45.94 48.54 48.67 45.36 46.69 46.70 46.99 51.09 54.63 56.48 58.32 59.79 61.09 61.48 62.52 62.62 63.17 63.56 64.16 64.71 64.92 63.70 63.60 63.75 64.55 64.83 64.14 64.88 65.41 66.49 66.13 66.64 66.30 66.16 66.24 66.22 65.50
39.81 37.21 38.83 39.84 41.92 44.46 45.29 45.54 46.68 47.02 48.33 46.47 48.44 47.72 51.21 55.32 57.04 58.44 60.24 60.92 61.22 61.43 61.96 62.83 63.25 63.93 64.59 64.13 63.15 63.56 63.74 64.14 64.47 63.73 64.45 65.47 66.14 66.93 66.22 65.98 66.17 66.28 66.36 65.00
40.63 37.53 40.46 37.39 39.61 43.53 44.04 46.09 46.85 47.44 48.61 49.45 49.38 48.03 53.26 54.82 55.62 57.45 59.39 60.30 60.37 61.22 62.06 62.95 63.42 63.99 64.32 63.60 62.37 63.27 63.60 63.73 63.99 63.85 64.14 65.60 65.23 65.13 65.85 65.98 66.22 66.14 65.99 65.33
39.04 38.93 39.28 32.75 39.32 41.54 39.67 45.66 46.79 47.90 49.91 49.52 46.20 48.50 52.82 52.53 53.36 55.16 59.20 60.47 60.72 61.71 62.20 63.00 63.41 64.08 64.62 63.56 62.96 62.95 63.64 64.05 63.42 63.57 64.71 65.11 65.13 64.39 65.27 65.63 65.32 64.58 65.28 65.34
39.84 37.49 40.25 34.35 37.26 32.41 44.67 50.12 49.62 47.90 49.00 50.55 49.97 51.02 52.67 53.13 55.77 57.44 60.32 60.86 61.23 62.37 63.01 63.91 64.22 64.95 65.42 64.41 63.21 63.92 63.84 63.21 63.10 63.15 64.13 65.35 65.15 64.24 64.88 65.42 65.67 65.26 64.55 63.74
42.78 38.78 35.88 34.21 35.32 42.46 44.47 48.94 47.59 47.47 46.63 50.97 50.38 51.87 52.77 54.36 55.06 56.42 61.47 61.92 62.54 63.88 64.59 64.96 65.41 65.89 66.05 64.33 63.65 63.65 63.28 62.52 62.69 62.55 63.56 65.12 64.97 65.00 64.57 64.71 65.67 66.76 65.54 65.54
43.41 43.14 37.84 37.04 34.75 32.10 42.58 50.25 52.72 52.45 45.42 52.58 53.35 53.56 54.98 55.74 50.02 55.37 60.06 62.09 63.69 64.25 65.59 65.49 65.81 66.36 66.06 64.63 63.96 63.27 62.70 62.01 62.04 62.60 63.01 65.18 65.33 65.00 65.11 65.37 66.06 67.33 66.86 65.59
37.77 39.20 35.29 36.60 37.91 41.67 47.76 51.74 52.46 42.99 43.34 52.64 53.87 54.22 54.32 53.73 56.50 58.99 60.36 61.15 62.73 64.88 65.60 66.59 66.28 65.86 66.29 65.14 63.99 62.71 62.82 61.68 62.82 63.45 63.21 64.66 65.30 65.36 65.97 65.71 66.90 66.90 66.00 65.62
35.53 33.86 37.15 38.13 36.95 35.57 49.43 50.75 46.74 49.11 52.86 53.62 54.32 55.26 54.83 56.55 57.69 58.77 59.99 61.21 61.60 63.46 64.81 66.26 65.80 65.82 66.73 65.10 63.69 62.73 62.58 63.21 63.03 63.80 63.08 63.93 65.24 64.84 65.44 65.61 66.64 66.25 65.56 64.07
36.39 40.43 40.75 42.34 39.99 46.44 48.59 49.08 51.69 52.77 52.08 53.94 54.99 55.77 56.51 57.05 58.44 59.74 60.32 62.04 62.56 63.07 64.88 66.00 66.08 66.20 66.56 65.25 64.02 62.90 63.49 63.55 62.63 63.52 63.33 63.84 65.37 64.59 65.02 65.06 66.08 64.55 65.87 63.97
39.33 44.51 42.46 44.41 43.21 45.59 48.70 50.68 51.25 52.88 52.78 54.05 55.97 56.31 57.07 57.00 59.23 60.39 61.64 62.37 63.29 63.38 64.86 66.03 66.16 65.77 65.58 65.42 64.08 63.91 64.13 63.75 62.75 62.97 63.56 63.78 64.64 63.75 64.36 64.04 65.50 65.26 64.47 62.61
39.64 42.78 42.18 41.31 42.47 46.18 48.87 50.39 51.00 51.75 53.70 53.28 55.37 56.17 56.74 57.62 59.00 60.96 61.95 62.86 63.29 64.03 64.57 65.86 65.85 66.06 66.09 65.68 64.39 64.10 64.00 63.60 63.11 63.19 63.45 63.47 63.87 64.33 63.79 63.71 63.30 64.31 66.15 61.14
43.26 41.15 38.97 37.59 43.64 44.02 45.28 50.25 51.33 51.10 51.90 52.49 53.35 55.16 57.29 57.89 58.15 60.87 62.30 63.95 64.31 63.87 64.16 65.30 65.99 66.20 66.42 65.84 64.60 63.81 64.21 63.52 64.30 63.81 62.79 62.79 63.02 63.30 64.70 63.30 61.86 43.19 46.75 47.08

GFSCGP_sfc_wetblb_036.txt.gz
Wetbulb
46.96 43.87 41.93 44.00 46.80 47.90 48.77 48.40 47.45 50.78 53.77 52.51 52.30 52.75 54.48 57.34 57.83 57.34 58.40 58.53 58.98 59.91 62.29 64.59 66.52 71.30 69.52 70.52 71.37 72.72 72.17 73.14 72.03 71.43 69.72 68.92 67.59 69.06 68.83 69.65 70.43 70.19 70.27 69.59
43.78 41.63 46.69 47.47 46.75 46.00 46.18 46.05 46.77 50.45 52.30 52.08 51.82 51.85 55.16 56.83 57.10 57.74 58.42 58.11 59.13 59.91 62.30 64.37 66.98 68.94 69.35 69.94 70.95 71.28 71.03 72.81 71.64 71.15 70.11 69.08 68.72 68.08 68.48 69.09 70.28 70.11 69.75 69.55
41.08 43.90 47.53 46.88 45.44 44.55 45.33 44.78 46.06 46.39 49.82 51.75 50.52 49.56 52.83 55.70 57.45 58.33 58.55 59.38 60.03 60.11 59.53 60.55 66.15 67.78 68.16 68.35 69.08 69.34 70.68 71.39 71.20 70.99 70.22 72.16 70.66 70.91 69.21 68.78 68.36 69.21 68.93 68.89
42.77 46.31 44.47 45.16 44.55 45.78 43.34 47.57 46.83 46.72 45.78 43.26 49.82 42.38 50.74 53.62 54.84 56.80 57.74 58.48 58.94 59.80 61.00 62.62 65.69 66.78 67.43 67.52 68.51 69.27 70.40 70.29 70.55 71.92 70.27 70.14 67.78 66.06 67.68 68.45 67.55 68.58 68.66 68.04
38.65 42.82 43.48 42.21 44.81 47.38 45.06 48.05 47.27 47.17 45.86 46.36 46.10 44.26 47.60 52.69 51.80 53.53 56.09 57.39 58.77 60.09 61.87 63.19 66.01 66.81 67.17 67.85 67.89 68.78 69.69 69.45 70.75 71.10 70.11 69.55 69.24 68.75 68.81 67.97 68.20 68.73 68.86 67.67
40.59 44.55 44.01 45.48 46.50 46.99 48.97 46.75 46.65 47.03 46.24 41.01 45.91 44.92 44.91 48.57 51.77 53.31 55.99 57.26 58.32 60.78 61.66 62.96 66.70 66.97 66.60 67.56 67.79 68.64 68.53 69.28 69.71 70.03 71.13 70.49 68.96 68.43 67.68 67.63 66.95 67.16 68.17 68.17
40.72 40.45 43.11 44.94 43.49 46.70 46.08 45.65 39.10 38.18 38.75 38.47 46.98 44.69 46.58 51.85 53.59 54.43 55.41 57.17 59.05 61.07 61.36 64.46 65.02 65.28 65.78 66.41 67.25 67.83 67.99 67.80 68.64 69.17 69.24 69.30 69.04 68.89 68.38 67.83 67.27 67.10 66.82 66.38
34.68 34.15 40.49 43.90 43.26 43.36 44.24 45.11 40.34 33.38 36.01 39.42 45.70 41.95 46.74 54.27 55.29 56.53 58.24 58.77 60.13 60.42 64.20 64.54 64.98 65.17 65.29 66.26 66.75 66.84 67.11 67.06 67.95 68.07 68.07 68.86 69.09 67.49 67.96 68.62 67.74 67.00 66.61 66.91
33.73 35.47 45.08 43.59 45.19 45.79 43.87 41.16 47.15 43.30 44.20 40.76 44.17 47.88 51.52 53.75 54.70 56.55 56.44 58.63 59.37 62.59 63.91 64.30 64.85 64.98 65.18 65.97 66.49 66.78 66.95 67.19 67.53 67.67 68.25 68.11 68.50 68.93 68.53 68.46 68.71 67.34 68.02 67.00
37.17 31.90 41.99 45.21 44.35 45.41 45.37 47.83 41.21 43.69 36.19 35.82 41.95 44.69 46.49 52.43 54.08 55.71 56.65 57.70 59.61 63.15 63.72 63.93 64.46 64.96 65.88 66.40 66.98 67.73 67.65 67.16 67.17 67.15 67.38 66.89 68.01 66.80 66.27 68.14 67.73 67.63 67.59 65.59
40.51 36.57 37.81 44.02 41.14 40.68 43.58 42.62 44.40 46.02 43.75 39.07 38.22 42.86 53.45 55.23 55.65 55.07 56.82 57.56 59.37 62.61 63.24 63.90 64.05 65.48 66.04 66.25 66.56 67.04 66.85 66.29 66.13 66.87 67.53 66.25 67.26 65.99 67.14 67.75 67.74 67.17 67.43 65.70
41.36 38.28 34.87 38.41 45.96 46.38 46.62 44.55 45.35 41.28 40.99 44.11 43.51 43.97 55.75 55.00 55.21 56.71 57.09 57.23 61.20 63.15 63.27 63.83 64.44 64.85 65.04 65.47 66.02 66.39 66.20 65.16 65.74 66.37 66.36 65.73 65.42 66.23 67.05 66.78 67.13 67.47 66.85 66.20
39.89 37.65 32.42 35.52 41.63 45.98 43.50 45.30 47.07 47.54 48.86 43.45 40.82 44.16 55.35 55.04 54.82 57.17 58.33 57.68 61.35 62.74 62.97 63.27 63.72 63.95 64.52 65.14 65.32 64.51 65.26 65.11 65.26 65.29 65.71 65.10 66.08 66.42 66.60 66.29 66.85 66.88 66.45 65.29
41.32 36.83 34.50 31.77 35.68 40.11 39.47 44.29 46.16 46.46 42.97 43.73 45.47 47.01 51.13 53.04 55.22 57.73 59.61 60.75 61.80 62.25 62.17 63.13 63.36 63.85 64.67 65.13 64.16 64.04 64.11 64.91 64.97 64.70 64.95 65.75 66.31 66.53 66.16 66.61 67.19 67.22 66.63 65.06
38.91 33.97 36.79 37.38 38.05 38.74 39.55 41.59 44.96 44.98 47.24 44.28 47.33 48.12 51.11 54.65 56.80 58.88 61.49 61.86 61.30 61.23 61.89 63.03 63.06 63.95 64.62 64.45 63.78 63.47 63.83 64.39 64.69 63.95 65.37 65.92 67.00 66.28 66.47 65.48 65.50 66.06 66.50 65.32
39.50 34.47 37.82 35.66 38.54 37.06 36.28 41.51 44.34 46.36 47.49 48.50 49.11 49.28 55.36 57.11 58.25 58.91 59.75 60.60 60.53 61.15 61.97 62.91 63.87 64.29 64.39 63.69 62.54 63.24 63.64 63.76 64.08 64.24 65.30 65.67 65.74 64.55 66.01 65.34 65.62 65.85 65.39 64.52
38.22 37.13 35.64 32.03 37.26 35.82 33.41 41.88 44.62 46.79 48.70 49.87 47.11 51.65 54.79 53.68 54.38 58.29 59.89 60.82 60.68 61.30 62.28 62.77 63.44 64.36 64.70 63.69 63.36 63.06 63.75 63.90 63.54 64.01 65.25 64.81 64.92 64.71 65.37 65.08 65.04 64.71 64.83 64.61
38.38 37.82 37.04 33.21 34.10 25.64 40.81 49.87 49.42 47.92 49.61 51.91 50.94 51.17 53.73 54.55 56.20 58.87 60.76 60.95 61.47 62.35 62.81 63.62 64.01 65.18 65.58 64.22 63.66 64.18 63.87 62.98 63.11 63.57 64.47 64.52 64.55 64.59 65.18 65.32 64.96 64.96 65.41 63.84
42.85 38.49 34.89 32.55 32.90 34.75 40.04 47.61 48.34 46.74 47.80 51.54 51.27 51.66 52.08 54.65 58.39 57.81 60.43 62.01 63.22 64.08 64.42 64.61 65.46 66.24 65.88 63.94 63.90 63.59 63.05 62.40 62.57 62.98 64.11 65.05 64.85 64.32 64.85 64.60 65.38 64.65 64.65 63.94
42.33 41.88 36.78 35.59 31.86 30.48 42.85 48.62 52.83 52.52 43.79 52.52 53.85 54.19 54.67 55.70 50.47 54.61 59.15 60.79 62.08 64.44 65.17 64.94 65.81 66.54 65.88 64.55 64.21 63.52 62.55 61.84 62.15 62.66 64.18 64.75 65.40 65.16 63.99 65.51 65.10 66.18 65.48 64.14
36.33 37.08 34.24 34.33 33.39 35.50 44.91 49.18 52.79 42.00 43.12 53.08 54.47 54.72 54.95 53.25 55.33 58.83 60.25 60.99 62.60 63.87 65.25 66.44 66.27 65.81 66.13 65.12 64.31 63.00 62.53 61.41 63.12 63.08 64.66 65.04 65.49 66.17 66.17 66.05 66.16 65.96 64.90 64.00
36.19 34.90 34.93 36.81 34.27 31.42 45.53 48.59 44.74 48.36 53.62 54.15 54.42 54.97 54.65 56.14 57.38 58.59 59.51 61.19 62.01 62.63 65.41 66.12 65.85 66.36 66.39 64.99 63.97 63.08 62.62 62.98 63.70 63.23 63.46 64.83 65.73 64.96 65.44 65.74 66.08 65.60 64.90 63.28
35.88 38.11 36.75 40.08 39.12 45.19 47.81 47.64 50.47 51.39 51.46 52.84 53.89 55.03 56.25 56.89 58.04 59.37 59.80 61.29 62.24 63.02 64.38 66.14 65.98 66.51 66.32 64.82 63.94 63.18 64.12 63.63 63.23 63.05 63.45 64.54 65.00 65.25 65.37 65.59 65.27 64.66 64.26 63.02
40.67 43.82 39.66 40.74 40.65 43.54 47.19 48.94 50.29 52.13 51.87 53.46 53.58 55.71 56.74 56.42 58.29 60.00 60.97 61.69 62.17 62.88 63.35 66.39 66.13 65.99 65.69 64.92 64.33 64.82 64.40 63.60 62.89 63.42 63.62 64.64 64.00 63.63 64.37 65.99 65.79 64.53 64.46 63.46
40.56 42.60 40.63 39.84 42.38 43.76 45.21 47.84 50.16 51.23 52.43 52.75 53.88 54.46 56.14 56.99 57.52 59.60 61.13 62.15 62.86 63.44 63.75 66.23 66.07 66.11 66.10 65.32 64.28 64.83 64.18 63.67 63.05 63.94 63.44 64.37 64.03 63.61 63.38 65.09 62.70 64.34 56.33 61.54
42.15 40.62 38.89 38.07 44.57 43.88 45.04 47.94 50.19 49.89 51.50 52.43 52.70 53.33 56.26 57.02 57.35 58.87 60.54 63.13 64.17 63.70 64.44 65.63 67.01 66.78 66.61 65.63 64.44 64.16 64.19 64.02 63.87 63.46 63.40 63.10 63.61 63.69 62.52 61.32 59.38 43.05 45.70 44.98

GFSCGP_sfc_wetblb_039.txt.gz
Wetbulb
41.51 37.52 36.33 39.15 41.44 43.22 44.35 44.60 43.82 47.02 50.04 48.40 47.67 48.52 50.83 53.20 52.79 52.82 53.62 53.74 55.06 55.56 57.19 57.31 59.28 60.24 62.63 63.90 65.37 66.37 68.08 68.04 69.61 68.67 66.79 65.03 63.78 63.35 63.36 64.05 64.58 65.92 66.39 66.54
39.08 35.10 41.01 44.36 43.74 42.53 42.43 40.61 41.02 46.09 49.94 48.42 47.65 47.33 50.91 52.74 52.56 53.45 53.90 54.46 54.68 54.48 56.29 58.42 59.33 62.57 62.29 63.64 65.11 65.32 66.72 67.68 67.62 67.34 65.65 64.64 63.90 63.28 63.25 63.44 64.21 65.06 65.34 64.81
36.96 39.55 44.05 43.11 42.25 41.35 40.74 39.69 40.43 40.85 44.98 46.58 45.20 43.35 46.26 50.00 51.78 53.59 54.34 55.10 54.85 54.82 54.84 55.75 59.50 61.29 62.53 63.45 63.75 64.39 66.22 67.06 66.70 66.27 65.42 64.87 64.10 63.47 62.68 62.61 63.53 64.50 65.13 65.11
36.46 41.49 42.78 41.09 40.33 42.65 37.95 43.98 43.50 42.78 41.51 36.95 44.15 35.60 43.42 46.88 48.57 51.01 52.94 53.88 53.56 54.66 56.08 55.72 59.79 61.22 62.25 63.10 64.05 65.18 66.79 66.16 66.10 64.82 64.10 62.90 61.02 60.02 61.05 61.05 62.96 64.35 64.47 64.32
34.61 37.18 38.41 39.33 40.38 43.62 40.44 45.97 43.69 43.40 40.70 39.57 40.60 35.99 42.27 46.48 46.60 49.03 51.38 52.99 53.47 53.80 54.69 55.26 60.52 62.86 62.97 63.56 63.86 65.47 65.68 64.85 65.44 64.18 64.16 63.01 61.85 62.03 61.58 61.80 62.30 62.68 63.18 64.17
37.90 41.88 39.79 38.69 41.53 44.38 44.77 43.36 42.64 42.09 39.62 33.14 39.08 38.87 39.70 42.51 45.60 47.91 51.04 52.55 53.11 52.70 54.09 59.84 62.69 63.21 63.05 64.21 64.75 64.94 64.54 64.32 64.41 64.42 64.01 61.92 61.03 61.00 61.03 60.80 60.85 61.03 62.17 62.72
37.75 38.18 40.69 41.67 37.59 40.49 40.82 37.30 30.28 29.82 31.14 31.10 40.57 38.58 41.68 45.06 48.50 50.19 50.81 51.59 53.00 53.92 55.15 60.99 61.31 61.92 62.45 63.37 64.28 64.21 63.81 63.39 63.51 64.41 63.48 63.09 61.68 61.11 60.05 61.16 59.99 60.62 61.10 61.52
32.27 30.23 40.19 43.86 38.55 35.62 36.52 37.47 31.61 25.17 28.52 32.55 40.97 36.27 40.01 48.69 51.28 51.86 52.59 52.47 53.83 53.50 59.75 60.73 61.31 61.55 62.55 63.78 63.85 63.46 63.59 63.11 63.34 63.07 62.32 62.57 62.13 60.87 61.64 61.58 61.62 61.62 61.03 60.90
31.20 31.62 41.54 40.89 41.38 40.26 36.32 33.60 40.26 34.82 37.46 33.16 37.29 41.56 45.63 47.73 48.39 50.61 51.28 53.24 53.24 57.63 60.11 60.35 60.94 61.64 62.88 63.23 62.94 63.12 63.18 63.16 63.27 62.63 62.42 62.13 62.09 62.37 61.74 62.03 62.89 61.81 62.08 63.14
35.79 28.29 37.78 39.12 42.02 43.71 40.46 40.68 33.50 36.05 28.06 27.27 35.76 38.04 38.60 44.45 47.07 49.98 50.94 51.14 55.68 59.23 59.76 60.34 60.76 61.85 62.98 63.29 62.57 63.22 63.14 62.90 62.76 62.65 62.04 62.01 61.67 62.45 62.31 62.06 62.08 61.86 61.90 61.80
35.44 32.98 33.23 38.14 36.10 36.63 37.98 35.43 36.17 36.04 36.09 30.82 30.47 35.40 44.96 46.00 50.44 48.83 50.85 51.98 57.76 58.68 59.44 60.19 61.00 62.27 62.70 62.85 63.25 62.81 62.78 62.47 62.00 62.01 61.32 63.35 62.15 62.53 61.98 62.15 62.56 61.76 61.20 61.36
38.15 34.90 30.65 33.32 40.44 42.99 41.59 37.72 36.94 32.41 31.79 36.68 36.16 36.87 47.15 49.13 49.87 50.97 51.66 53.11 58.58 59.25 59.97 60.40 61.58 62.07 61.90 61.69 62.85 62.13 61.95 61.30 61.64 62.02 61.58 63.20 62.42 62.32 61.84 62.14 62.29 61.75 61.47 61.74
36.64 31.95 27.94 30.05 35.87 40.34 38.68 41.59 40.50 38.87 38.92 35.33 33.56 37.18 47.83 49.24 50.19 51.88 50.52 56.71 58.71 59.12 59.61 60.41 61.02 61.18 61.20 61.67 62.35 61.82 60.88 60.78 61.37 61.71 62.25 63.22 61.31 61.65 61.29 61.82 62.42 62.47 61.85 61.65
40.75 33.78 31.20 26.56 31.11 36.22 35.33 37.51 39.46 37.12 35.48 36.75 38.68 40.56 45.08 48.59 50.23 51.56 53.42 57.83 58.63 59.02 59.53 60.17 60.41 60.69 61.00 62.06 61.66 60.82 60.14 61.05 60.75 63.03 60.83 61.61 61.38 61.30 61.18 61.67 62.11 61.72 61.95 62.80
38.00 31.12 33.86 34.89 37.23 37.84 35.20 35.48 37.07 35.08 37.43 36.80 40.44 41.97 44.87 48.69 52.67 53.30 56.44 57.98 58.02 58.42 59.13 59.87 59.73 60.30 60.83 60.71 59.95 60.37 59.88 60.51 60.02 61.52 62.82 62.19 61.70 61.60 61.86 62.13 61.89 62.07 61.48 62.13
40.24 31.40 34.70 33.85 37.75 38.03 34.21 36.77 37.52 37.12 38.37 40.10 42.76 42.87 48.90 54.55 57.56 56.83 57.00 57.86 57.85 58.61 59.47 60.14 60.57 60.91 60.76 59.88 59.32 59.66 59.17 59.78 59.32 62.14 62.24 63.06 62.02 62.33 61.22 61.20 61.76 61.63 61.06 60.82
36.37 34.34 34.56 30.11 36.81 35.45 30.37 35.45 36.53 38.08 40.47 41.42 40.00 45.85 51.61 51.64 53.73 54.52 56.07 57.87 58.16 59.14 59.82 60.10 61.04 61.20 60.68 59.14 59.25 57.76 58.68 58.94 59.47 62.14 62.87 63.15 62.02 62.16 61.70 62.68 62.02 61.29 59.97 59.47
34.07 32.88 35.17 32.97 33.95 24.20 36.30 42.55 43.29 42.51 43.58 46.63 47.86 50.39 51.57 53.11 53.84 56.00 56.02 56.85 58.56 59.68 60.14 60.58 60.98 60.84 60.03 58.70 59.21 58.86 59.06 58.42 59.59 61.70 62.28 62.62 62.50 61.88 61.74 61.63 61.00 60.07 59.82 59.34
38.63 35.42 32.97 30.99 32.21 34.99 37.70 43.27 43.08 42.61 44.80 50.15 49.83 51.35 53.35 55.19 54.45 52.94 56.69 57.63 57.53 59.78 60.68 60.88 61.74 61.49 59.63 59.42 59.19 59.48 57.86 58.06 58.93 61.55 61.67 62.53 62.70 61.61 61.77 61.55 60.62 60.55 60.16 60.11
39.73 39.34 34.29 33.21 29.06 28.26 38.14 41.84 45.07 46.38 40.69 50.54 51.23 51.68 52.56 52.73 46.86 49.31 55.31 57.40 57.26 60.11 61.40 61.55 62.45 61.49 59.17 59.22 59.27 58.56 57.07 56.99 57.51 60.81 62.06 62.76 62.81 62.09 61.71 61.41 60.83 60.93 60.61 59.95
34.48 34.90 31.33 32.33 32.45 35.11 39.23 43.47 46.59 39.20 41.83 51.61 52.21 52.22 51.85 49.92 51.59 53.31 55.65 57.15 58.73 59.02 61.42 62.80 62.59 60.92 59.40 59.60 59.20 57.85 56.63 56.09 58.22 60.99 62.69 62.49 62.01 61.98 62.20 61.49 61.22 60.87 60.75 59.34
32.87 33.42 33.80 34.89 32.31 29.49 43.79 43.82 42.39 46.30 49.64 50.38 51.78 51.77 51.54 52.85 54.78 55.54 56.74 57.15 58.99 59.02 60.97 62.50 62.01 60.60 60.03 60.05 59.42 57.21 56.19 57.54 58.98 59.80 62.40 62.24 62.62 64.17 62.77 61.81 61.19 61.15 59.72 57.03
34.43 37.09 33.03 32.89 34.26 43.18 44.63 44.56 47.33 48.46 49.12 48.94 49.99 52.25 52.86 52.57 53.78 55.97 57.00 57.63 58.76 58.25 59.32 59.29 62.43 60.65 60.06 59.98 59.64 57.49 57.76 57.96 58.71 58.79 61.34 61.36 61.28 63.09 62.25 61.86 61.05 60.91 59.30 57.17
39.24 42.63 39.22 37.93 37.70 41.19 44.78 46.34 47.54 48.70 49.44 49.87 50.87 51.55 52.15 52.03 53.66 55.52 57.94 57.99 58.75 59.23 59.75 61.18 62.61 60.54 59.27 59.70 59.88 59.68 59.45 58.89 58.85 60.15 60.26 60.46 60.80 60.26 62.05 62.69 62.32 61.27 60.26 58.45
39.94 41.43 39.05 39.24 41.76 43.10 44.35 45.43 46.51 48.43 49.01 50.69 51.22 51.07 51.79 52.13 53.37 55.43 55.67 57.05 59.78 59.30 60.19 62.30 62.69 61.50 60.03 60.06 59.73 60.41 60.11 58.67 59.15 60.60 59.87 60.18 60.37 59.43 60.66 57.19 57.87 60.63 61.10 60.02
41.50 39.07 36.20 35.93 41.27 40.92 41.62 45.10 47.29 47.74 47.65 49.10 50.45 50.02 51.45 52.42 53.15 55.16 55.09 56.56 58.53 59.89 60.11 60.70 63.00 62.32 61.14 60.69 60.29 60.45 60.34 59.12 59.80 60.02 59.80 59.58 59.74 58.65 57.50 53.65 51.78 43.25 42.46 48.76

GFSCGP_sfc_wetblb_042.txt.gz
Wetbulb
39.39 33.97 33.67 37.28 40.04 41.83 41.86 41.47 40.83 44.72 48.54 47.02 46.20 46.75 48.73 51.12 50.45 50.54 51.81 52.76 53.29 54.39 56.42 57.50 56.71 56.58 60.12 61.33 61.88 62.92 65.71 65.99 67.44 66.72 65.41 63.11 61.67 61.98 62.42 63.24 64.57 65.18 64.82 64.62
35.67 32.78 38.35 41.22 41.47 40.04 39.22 37.55 37.84 42.03 44.80 45.27 45.78 45.55 48.99 50.68 50.65 51.60 52.28 52.60 52.57 51.81 54.24 56.13 55.47 59.16 61.04 61.93 63.34 64.91 65.71 66.33 66.33 65.62 64.43 63.41 62.29 61.80 62.01 62.47 63.34 65.15 64.90 64.71
34.49 37.06 41.92 39.85 38.96 38.60 38.47 36.84 37.92 38.58 42.64 43.87 41.92 39.88 42.89 47.01 48.46 49.64 50.68 52.17 52.62 52.45 53.34 54.95 56.07 59.16 60.41 62.46 63.06 64.99 65.56 65.94 66.18 65.40 64.14 62.66 62.27 62.09 61.50 61.16 61.27 62.90 64.36 64.23
33.88 38.23 38.48 38.57 36.62 39.24 34.88 41.74 41.06 39.83 37.93 33.44 41.63 32.48 40.63 44.44 45.83 48.02 48.69 50.18 49.33 51.76 54.05 54.27 54.39 58.52 60.54 61.74 62.84 65.28 65.84 65.75 65.40 64.40 63.30 61.94 60.17 59.46 60.10 60.19 61.14 63.02 64.30 63.68
32.98 34.68 35.13 35.71 37.63 41.27 36.93 42.81 41.53 40.97 37.46 36.59 37.49 32.59 39.08 42.46 42.97 44.95 47.61 49.23 51.36 52.97 52.15 53.61 55.87 60.12 60.99 62.34 62.87 65.07 64.74 64.41 63.91 63.46 62.56 60.92 59.46 59.49 59.61 60.95 61.42 61.28 61.68 62.95
36.44 40.04 37.77 36.44 39.35 39.57 40.85 39.90 39.41 39.46 34.97 30.07 35.74 34.79 36.69 39.73 42.44 44.72 47.76 50.00 50.95 50.90 51.45 53.47 58.97 61.40 61.43 63.20 64.33 64.43 63.55 62.98 63.05 62.61 61.98 60.96 60.29 59.55 59.17 59.54 59.61 60.10 60.70 61.18
35.25 36.03 39.16 40.53 35.85 38.08 35.83 30.58 25.53 24.22 26.82 28.36 37.69 34.92 38.32 41.95 44.59 45.84 46.46 48.95 50.22 50.83 54.09 58.57 59.85 60.52 61.83 62.92 63.24 63.07 62.72 61.41 62.57 62.19 61.75 61.09 59.59 59.70 59.62 59.52 59.32 59.85 59.49 59.85
30.97 28.50 38.57 42.71 37.17 32.78 32.33 31.39 26.32 21.27 23.47 29.65 37.84 32.52 37.94 44.80 47.25 47.99 48.96 49.93 50.95 49.11 56.73 58.87 60.04 60.91 62.19 63.06 62.58 62.67 62.20 61.24 61.92 61.38 60.95 60.71 60.14 59.83 60.59 59.76 60.03 60.09 59.85 60.00
29.86 30.84 39.90 40.01 39.83 37.82 33.81 29.98 34.50 29.48 33.65 27.87 33.57 37.87 43.57 45.87 46.18 47.32 47.54 49.03 49.11 50.93 57.27 58.69 59.85 61.48 62.52 62.44 62.26 62.35 61.83 61.41 60.73 60.92 60.64 60.35 61.08 60.22 59.72 60.46 60.99 60.46 60.13 61.21
33.96 27.29 36.93 38.77 40.30 38.93 36.90 38.77 28.67 28.30 23.52 23.33 30.79 33.68 36.17 40.79 43.52 45.53 46.42 47.47 50.74 56.41 57.97 58.82 60.28 61.55 62.31 62.22 62.43 61.87 61.96 61.54 60.83 60.73 60.35 60.53 59.73 61.17 61.20 61.34 60.92 60.57 61.03 61.17
34.01 31.05 31.72 36.81 34.77 32.17 34.04 32.94 32.64 31.22 29.82 27.19 25.92 31.58 41.06 42.28 43.65 45.02 48.42 48.81 55.80 57.04 57.97 58.91 60.60 61.60 61.88 61.92 62.56 61.88 61.63 61.36 60.68 60.46 59.55 59.63 60.14 61.45 60.45 61.16 61.10 60.35 60.15 60.48
36.92 32.26 28.09 30.43 37.39 40.86 38.09 35.33 33.98 27.23 27.18 31.00 32.76 33.07 44.71 43.36 44.69 46.52 47.89 55.19 56.90 58.14 58.67 59.59 60.58 61.19 61.23 61.60 61.97 61.69 61.32 61.03 60.74 59.94 60.32 60.07 60.86 60.56 60.72 61.01 61.05 60.03 59.91 60.14
35.83 29.11 23.42 25.84 32.70 37.68 35.62 38.72 37.66 34.81 32.09 30.16 28.51 32.45 44.51 45.53 45.84 47.96 49.20 55.39 56.95 57.75 58.23 59.57 60.17 60.55 61.24 61.36 61.77 61.65 61.08 60.69 60.43 60.39 60.37 60.55 60.30 60.28 60.30 60.60 60.91 60.55 60.41 60.57
39.76 32.80 29.23 22.07 29.14 34.33 32.33 36.46 37.17 34.61 29.88 31.46 33.40 35.60 41.17 44.25 44.92 46.40 50.91 54.92 56.89 57.61 58.76 59.29 59.66 60.21 61.29 61.61 61.65 61.42 59.91 60.10 60.05 60.90 60.49 59.67 59.86 60.06 60.18 60.47 60.76 61.12 61.09 61.30
39.12 31.42 32.96 32.99 34.69 35.40 34.99 35.53 36.03 33.74 35.12 31.17 36.38 35.74 40.84 44.28 45.08 46.51 53.07 56.23 56.73 57.24 58.32 59.06 59.21 59.72 60.64 60.83 61.12 60.76 59.99 59.20 59.64 60.00 60.91 59.53 60.20 60.26 60.37 60.66 60.84 60.74 60.49 61.86
36.84 31.82 33.89 31.69 34.86 35.40 33.91 37.18 36.20 36.05 36.72 36.25 36.62 36.45 45.40 47.23 52.51 52.35 55.74 56.64 56.51 57.40 58.48 59.10 59.66 60.19 60.25 60.23 60.09 59.92 59.65 58.16 59.82 60.69 60.97 61.25 60.57 60.84 60.12 60.19 60.67 59.92 59.97 59.90
34.06 33.99 30.95 26.84 34.35 35.00 30.48 34.96 36.08 37.08 38.93 38.85 34.82 39.91 45.81 49.37 51.95 52.56 55.54 57.14 57.04 57.93 58.65 59.17 59.75 60.24 60.47 60.09 59.79 57.68 58.82 58.49 60.32 61.15 61.69 61.64 60.89 60.66 60.16 60.87 60.79 58.82 58.14 58.06
32.61 30.76 31.23 28.02 31.79 22.85 34.96 43.87 44.28 42.57 42.51 42.26 41.92 43.38 45.75 50.20 54.45 54.27 55.51 57.32 57.73 58.70 59.05 59.70 60.41 60.52 59.88 59.55 58.22 57.17 57.92 59.90 60.64 61.08 62.01 61.49 61.23 60.59 60.93 60.45 59.48 58.44 57.21 56.99
36.87 32.29 29.73 27.99 30.22 33.81 37.71 40.48 39.95 39.56 40.69 47.95 47.91 49.39 50.65 53.14 53.78 53.42 56.70 57.42 56.97 59.53 60.10 60.50 61.22 60.38 58.66 58.38 57.24 58.08 57.04 59.83 60.66 60.87 60.88 61.24 61.08 60.57 60.60 59.62 58.77 58.31 58.01 57.43
37.87 36.69 32.51 29.78 27.66 25.94 35.53 41.27 43.42 43.40 36.93 48.97 49.46 49.87 49.86 51.82 47.80 49.14 55.35 57.58 58.36 60.10 60.66 60.61 60.86 59.57 58.34 57.54 58.35 57.70 56.03 58.74 59.87 60.44 61.02 61.61 61.55 60.97 60.47 59.36 58.75 58.41 58.41 59.78
33.97 33.42 29.63 29.85 29.74 34.61 39.15 39.79 43.58 36.87 40.30 47.66 49.35 49.48 51.58 50.34 52.45 53.35 55.87 57.61 58.16 59.68 60.45 61.27 60.24 58.59 58.21 58.12 58.10 56.64 55.89 56.02 60.24 61.50 61.38 61.28 60.98 60.87 60.61 59.67 59.19 58.94 57.93 57.97
31.70 32.19 32.56 32.71 31.64 28.38 40.64 40.86 37.14 41.95 46.37 49.07 49.21 49.67 51.28 52.18 53.36 54.53 56.43 57.42 58.67 58.30 60.42 61.05 59.36 57.93 58.06 58.47 57.96 56.25 55.44 56.43 58.10 60.82 61.26 60.69 60.54 62.36 61.47 59.99 58.82 59.12 57.51 56.11
32.94 35.96 32.27 31.73 32.88 40.11 43.00 42.09 44.86 46.67 47.05 47.73 48.47 48.72 51.36 50.94 53.46 53.88 55.96 57.80 57.66 59.82 60.12 60.85 58.74 57.42 58.11 58.52 58.27 56.02 56.49 55.94 57.72 60.65 60.24 60.51 61.51 61.01 60.65 60.17 58.78 58.50 56.21 56.71
39.01 42.24 38.02 35.95 39.45 41.23 42.85 45.04 45.97 46.68 46.78 48.51 49.67 49.80 50.89 50.02 53.46 53.62 54.64 56.73 58.24 59.03 60.01 60.64 58.53 57.45 56.96 57.83 58.34 58.15 56.67 56.70 59.98 59.99 60.17 60.64 60.99 59.33 60.01 60.82 60.26 58.96 56.19 55.52
38.04 39.23 37.41 38.32 40.53 41.08 43.92 44.12 44.96 46.35 47.33 47.38 48.53 49.20 50.24 50.89 51.36 52.66 53.73 55.39 57.20 58.98 59.95 61.29 59.32 57.93 57.39 57.73 58.05 57.81 57.63 57.77 59.56 59.96 60.10 60.30 60.49 59.99 59.67 58.71 58.88 60.22 58.29 56.96
40.51 37.40 34.84 33.73 39.89 39.42 40.50 44.04 46.29 45.57 45.80 46.95 47.26 47.56 50.09 51.17 52.03 53.12 52.85 55.43 57.93 57.89 59.53 60.82 60.43 59.14 58.40 58.09 58.29 58.67 57.91 58.76 59.43 58.79 59.46 59.50 59.73 59.71 57.84 54.87 51.26 41.65 44.84 48.53

GFSCGP_sfc_wetblb_045.txt.gz
Wetbulb
38.19 33.84 32.36 36.58 39.50 40.08 38.93 38.96 37.52 42.36 46.27 46.22 45.13 45.38 47.76 49.70 49.05 49.49 50.33 51.26 51.76 51.33 53.83 55.22 55.79 56.03 54.94 54.98 55.77 55.64 59.92 62.57 64.51 64.69 63.70 62.36 62.89 61.57 61.85 63.92 65.92 65.74 65.34 64.77
33.94 32.51 38.53 39.97 39.40 38.20 37.07 34.61 34.53 40.09 43.57 41.85 41.79 42.71 45.13 47.15 48.63 49.78 50.32 50.72 51.47 52.27 51.84 54.21 54.49 54.25 55.99 56.54 58.99 58.73 61.85 64.19 64.32 64.61 62.21 61.93 60.96 60.81 61.62 62.37 64.83 65.22 65.15 65.39
31.18 35.17 40.55 38.56 36.84 36.30 35.71 34.94 35.79 36.38 40.78 42.01 39.87 38.70 40.93 44.48 45.41 47.64 48.85 49.06 49.95 49.97 50.93 52.49 52.46 53.79 55.70 58.40 60.27 61.93 63.36 64.27 64.66 63.66 62.70 60.96 60.88 60.62 60.20 59.89 60.89 63.15 65.40 64.84
32.09 36.51 36.60 35.42 35.10 36.23 32.07 39.25 39.32 38.08 35.56 31.44 38.91 30.79 38.40 41.98 42.90 45.13 46.67 47.84 47.11 48.73 51.31 51.30 52.21 52.40 56.87 58.67 62.26 63.36 64.31 64.63 64.51 63.82 62.44 61.89 59.50 58.58 59.08 59.74 60.40 61.57 63.41 63.27
31.09 32.68 33.43 33.60 34.98 38.29 33.82 38.79 37.80 38.12 34.83 32.15 34.34 30.35 36.73 40.42 40.72 43.15 45.13 46.56 46.68 49.29 49.18 49.72 50.79 52.88 57.23 61.10 62.25 63.47 64.22 64.14 63.37 63.16 62.92 60.99 59.27 58.90 58.95 59.47 60.24 60.12 61.08 62.62
33.61 38.14 36.09 34.80 37.51 37.74 39.26 36.05 36.12 35.77 32.45 25.62 32.85 32.03 34.13 37.01 40.13 42.64 44.82 45.58 48.21 47.94 48.96 49.65 52.16 57.19 59.52 61.14 62.84 63.39 64.01 62.23 62.42 62.08 61.27 60.41 59.45 58.35 58.77 58.34 59.24 59.48 59.70 60.70
33.06 34.35 37.73 38.65 33.55 35.99 33.96 27.83 22.76 21.96 22.43 25.64 35.09 32.21 35.96 39.26 41.95 43.00 42.92 44.52 46.51 47.75 47.16 52.03 56.20 58.11 59.80 61.55 62.25 62.41 63.05 60.93 61.36 60.66 60.00 59.83 59.14 59.09 59.07 58.53 58.60 58.77 58.48 58.92
29.60 26.45 34.85 40.45 35.09 31.10 30.02 29.28 23.26 20.30 22.10 26.84 36.04 30.35 36.07 42.95 45.62 46.68 47.04 46.18 46.16 46.60 46.70 52.14 56.85 58.40 60.56 61.84 62.09 61.95 61.92 60.47 60.64 60.30 59.27 58.91 59.17 59.37 59.06 58.78 58.86 58.96 58.78 58.91
30.59 30.93 39.83 39.34 39.03 36.84 31.66 27.14 32.30 26.44 28.69 25.48 30.13 35.31 41.53 44.01 43.76 45.12 44.34 45.17 44.77 45.74 47.89 54.70 57.66 59.31 61.22 61.50 61.31 61.15 61.02 60.54 60.42 59.78 59.28 59.13 59.58 59.74 59.20 58.85 59.16 59.32 58.85 59.68
32.96 26.21 36.21 38.74 39.60 38.33 34.70 36.77 26.45 24.43 21.01 20.88 27.56 30.68 33.63 38.44 41.74 43.99 43.93 43.69 45.02 46.21 52.03 56.81 59.31 60.76 61.22 61.31 60.74 60.66 60.91 60.37 60.06 59.62 59.44 60.00 59.41 59.64 59.77 59.99 59.45 59.40 59.61 60.02
33.03 29.52 30.27 35.28 33.12 29.99 32.31 31.42 31.92 29.05 27.04 22.76 22.71 27.53 37.80 39.98 41.82 41.65 43.19 45.17 47.67 49.62 55.56 57.99 60.04 60.93 60.91 61.31 60.95 60.71 60.56 60.01 59.41 59.15 58.98 58.81 59.32 59.82 59.84 59.96 59.84 59.87 59.76 59.64
35.10 30.80 26.85 29.48 35.16 38.01 34.93 33.81 32.23 27.10 25.22 29.63 26.87 29.25 42.19 39.57 40.92 42.38 43.69 45.93 52.99 52.70 56.11 59.15 60.34 60.49 60.53 60.90 60.63 60.90 60.35 59.97 59.45 58.90 58.62 58.51 59.07 58.80 59.10 59.91 60.00 58.89 59.09 59.33
36.08 28.16 23.11 24.77 31.17 36.07 32.65 35.60 35.03 33.94 30.77 28.33 26.14 28.83 41.26 41.43 42.39 43.80 43.02 47.60 54.90 55.39 56.95 58.89 59.60 59.82 60.53 60.97 60.83 60.40 60.30 59.92 59.06 58.83 59.07 58.79 58.57 58.80 59.27 59.60 59.52 58.93 58.91 59.26
39.25 33.16 26.82 21.43 27.04 31.94 30.25 33.88 36.83 33.13 27.21 30.45 31.56 33.14 37.69 40.08 41.71 44.15 45.06 51.65 54.20 55.67 57.58 58.70 59.02 59.58 60.56 61.33 60.88 60.69 60.09 59.96 58.99 59.21 59.02 58.59 58.45 59.12 59.24 59.58 59.80 59.63 59.77 59.55
37.14 31.47 31.65 31.67 33.66 33.63 32.79 32.64 34.17 33.32 33.50 29.85 34.06 34.43 37.08 40.22 42.17 45.50 46.92 47.83 54.63 56.02 57.51 58.41 58.65 59.58 60.22 60.40 60.78 60.95 59.87 59.60 59.06 59.15 58.94 58.43 58.74 59.42 59.42 59.46 59.60 59.92 59.78 60.46
35.66 27.76 31.65 30.01 34.12 34.26 32.13 34.06 34.47 35.05 36.06 34.84 35.28 34.40 41.20 43.57 45.11 48.20 52.32 52.60 54.56 56.52 57.83 58.64 59.14 59.60 59.84 60.40 60.56 60.40 58.90 58.51 59.43 59.24 58.86 59.61 59.33 59.60 59.02 59.40 59.28 58.74 58.92 60.72
34.29 31.82 27.51 25.00 32.93 32.05 28.63 34.00 34.44 35.92 37.51 35.97 31.21 36.50 43.46 42.65 44.71 47.40 52.14 52.60 55.55 57.12 58.32 58.56 58.94 59.69 60.23 60.58 60.78 59.01 57.86 57.69 58.61 59.54 60.27 60.71 59.93 59.72 59.04 59.49 58.77 57.76 57.63 58.07
33.10 29.47 30.47 25.75 29.85 21.03 33.32 41.63 40.16 37.76 38.38 38.96 39.40 39.84 42.10 42.98 45.26 52.84 53.67 53.00 56.09 58.01 58.53 58.81 59.46 59.85 60.37 60.13 58.81 57.83 57.15 58.40 59.23 59.96 60.54 60.10 60.14 59.49 59.35 59.09 57.69 56.74 56.20 57.48
35.15 32.28 28.14 26.05 27.36 32.06 34.50 39.13 38.54 37.34 37.37 44.69 45.41 46.91 49.09 50.46 51.53 51.68 54.99 55.23 55.84 58.82 59.33 59.52 60.36 60.20 59.90 58.05 56.85 57.58 57.15 58.71 59.47 60.14 60.33 60.38 60.25 59.66 59.31 58.36 56.98 56.28 55.78 56.28
36.13 35.46 30.61 28.08 25.35 23.87 33.48 39.29 41.07 40.28 33.00 44.62 45.53 46.22 46.61 49.67 45.95 47.90 53.51 55.68 56.01 59.15 59.97 59.54 60.10 60.08 59.22 57.31 57.11 56.13 57.31 58.47 58.83 60.10 60.53 60.70 60.11 60.15 59.07 57.98 57.10 56.56 57.04 58.86
32.81 31.94 28.44 28.34 27.34 32.23 36.00 37.74 40.38 33.46 34.92 42.98 46.38 46.87 46.17 46.55 49.44 52.22 54.74 56.21 58.28 59.79 59.85 59.92 59.57 58.30 58.81 56.68 56.77 55.43 57.55 58.06 59.70 60.58 60.43 60.38 60.00 59.71 59.03 57.92 57.28 57.14 58.89 59.39
30.91 30.52 31.82 31.21 28.94 26.65 39.59 36.82 36.02 39.90 44.38 45.28 46.17 47.16 47.04 49.53 53.06 53.06 55.78 57.18 58.50 58.55 59.31 60.19 58.86 58.34 57.13 57.47 57.33 54.70 56.36 58.78 59.62 59.97 60.15 59.73 59.42 60.94 59.77 58.12 57.22 57.04 56.35 55.83
31.91 35.22 32.18 31.27 32.03 39.74 41.52 38.79 44.08 45.59 44.99 45.26 46.22 47.23 47.86 49.42 52.11 53.13 54.44 56.56 57.90 58.67 59.18 60.25 58.52 56.30 56.46 57.30 57.52 54.99 55.60 56.25 59.32 59.42 59.05 59.12 59.91 59.90 59.12 58.02 58.68 58.06 55.77 57.34
37.96 41.03 36.88 35.99 38.54 38.49 42.04 43.29 44.98 46.08 45.54 46.98 48.11 47.37 48.33 49.52 52.68 53.25 53.78 55.44 58.29 58.90 58.52 58.51 56.53 55.99 55.44 56.60 56.81 57.27 54.53 56.73 59.24 58.50 58.59 59.61 59.49 58.18 58.63 58.89 59.29 58.28 57.36 57.42
36.72 38.13 36.43 36.72 39.95 40.69 43.02 42.90 44.22 45.27 46.47 46.48 47.68 48.02 48.18 51.52 52.81 53.46 53.74 56.64 57.92 58.92 59.59 57.74 57.26 56.95 56.70 56.60 56.21 55.56 55.65 57.74 58.41 58.89 59.11 59.85 59.08 58.62 57.84 58.81 58.22 58.27 56.52 57.04
38.48 36.33 35.91 34.72 39.93 39.53 40.04 42.89 44.65 44.46 44.38 46.24 46.78 47.04 49.08 52.42 52.12 54.14 54.36 55.80 58.32 58.75 59.47 58.62 56.69 56.47 56.69 57.26 56.48 55.41 56.37 58.46 58.75 58.39 58.96 59.28 58.78 58.40 57.80 56.19 53.93 40.84 44.73 47.63

GFSCGP_sfc_wetblb_051.txt.gz
Wetbulb
41.94 37.01 34.70 38.79 41.75 42.39 42.34 41.22 40.73 43.92 47.34 46.09 45.83 47.63 49.49 51.66 52.12 52.44 53.68 54.89 56.00 57.48 59.60 60.06 60.40 62.68 63.90 65.97 66.10 67.25 65.03 65.66 66.30 67.26 67.30 67.75 67.74 67.92 68.71 69.35 70.08 70.38 70.09 69.50
37.85 34.01 38.86 41.04 41.17 40.81 40.73 39.32 40.08 43.53 45.26 45.68 46.08 46.01 49.53 49.66 50.71 52.52 53.25 54.08 55.09 56.60 57.46 58.99 59.85 61.75 63.87 64.32 65.49 66.32 65.29 65.26 66.79 67.88 68.77 69.12 68.61 67.35 68.85 69.73 70.15 70.11 69.91 69.93
35.52 37.71 40.23 38.95 38.71 38.23 38.86 38.48 39.02 39.76 42.79 44.97 43.34 42.58 45.24 48.77 50.32 51.26 52.16 52.89 53.31 54.19 54.83 57.50 58.04 60.94 62.56 63.14 64.50 64.95 65.76 66.18 67.09 68.43 68.59 68.25 68.26 68.26 67.99 68.77 68.96 69.49 69.96 69.94
37.19 40.55 37.56 37.50 36.89 39.32 35.75 41.56 40.90 39.84 39.17 36.58 43.58 35.83 44.30 47.23 47.85 49.15 50.55 51.48 52.57 53.23 54.05 55.51 57.50 59.10 61.03 62.06 62.27 63.33 66.44 67.53 67.64 68.52 68.32 68.61 68.10 67.36 68.43 68.62 69.45 69.80 70.23 69.79
35.26 36.24 35.61 35.73 37.00 40.03 37.29 41.81 41.15 40.94 39.23 38.74 39.24 35.69 41.07 45.72 44.28 46.65 49.90 50.74 51.82 53.27 54.00 54.75 55.90 57.90 58.75 60.58 60.34 65.05 67.53 68.45 68.47 68.51 69.12 68.67 68.92 68.48 68.46 68.66 69.05 69.68 69.93 70.21
36.93 41.08 38.43 38.24 40.72 40.59 42.30 39.14 38.68 39.05 38.00 31.31 37.43 36.27 38.22 41.91 44.29 46.08 48.72 49.97 50.89 51.80 52.65 53.60 55.25 56.44 57.05 59.00 64.12 67.22 68.33 68.76 68.65 68.74 68.96 69.20 68.30 67.57 67.34 67.77 67.31 66.97 67.48 68.20
35.69 36.07 39.15 39.58 36.10 38.86 38.70 36.83 29.48 28.19 28.78 28.97 38.47 35.80 38.89 44.95 45.68 46.15 47.10 48.92 50.74 52.69 53.09 54.05 54.78 55.64 57.28 61.26 65.40 67.73 68.43 68.06 68.32 68.30 68.23 68.60 68.32 68.40 67.88 67.33 66.87 66.70 66.77 67.33
28.96 28.09 36.05 39.57 37.20 35.61 36.25 36.36 31.10 24.12 27.00 30.45 37.00 32.68 38.90 45.93 47.88 48.69 48.87 50.25 51.34 52.66 54.15 54.78 55.84 56.53 57.00 61.81 65.83 67.59 68.26 67.80 68.01 68.08 67.79 68.15 68.43 67.51 67.52 67.73 67.21 67.23 67.23 67.68
29.92 30.06 39.56 40.00 39.96 39.55 34.97 32.41 38.22 31.63 33.26 31.65 34.46 38.22 42.85 45.16 45.80 47.33 47.65 50.15 51.77 53.38 55.18 58.53 60.22 57.42 58.56 63.65 66.66 67.94 68.04 67.89 67.89 67.72 67.43 67.45 67.55 67.43 66.84 67.66 68.14 67.28 67.67 67.01
35.56 28.85 36.17 37.85 41.52 40.17 38.15 39.91 31.68 33.09 25.76 25.45 32.19 34.20 37.28 42.62 44.04 46.47 46.86 48.61 50.99 55.54 58.69 60.85 60.86 59.72 62.72 65.44 67.43 68.16 68.08 67.48 67.07 67.02 66.95 66.61 67.07 67.30 67.26 67.35 66.98 67.19 67.14 66.90
38.12 33.84 33.01 37.25 34.43 34.12 36.20 34.65 35.79 35.81 34.34 29.60 29.98 34.43 43.57 44.24 45.59 45.40 46.81 48.58 50.26 54.07 58.70 60.67 60.51 60.82 63.62 66.05 67.20 67.36 67.02 66.13 65.76 66.40 66.53 66.32 66.35 66.53 67.04 67.11 66.78 66.86 66.85 66.27
38.40 35.45 29.94 31.87 38.93 39.43 38.26 35.17 35.66 31.40 30.06 33.20 32.76 33.49 45.51 45.10 45.56 46.69 47.22 48.71 50.40 53.72 58.85 60.47 59.96 60.39 63.44 65.62 66.42 66.27 66.03 65.62 65.69 66.01 66.06 66.24 66.31 66.58 66.68 66.39 66.53 66.72 66.01 65.98
38.42 33.28 27.44 29.69 35.83 38.36 35.11 36.41 36.65 36.16 36.27 32.17 29.98 33.38 44.65 45.10 46.27 47.62 47.40 48.87 49.84 52.35 57.08 60.82 59.31 60.38 61.67 65.07 65.69 65.39 65.37 64.90 65.25 65.29 65.33 65.67 65.74 66.00 66.03 66.04 66.25 66.08 65.70 65.50
41.33 34.39 30.76 26.03 29.79 34.56 32.28 34.45 36.38 35.22 31.16 32.76 33.55 36.12 40.77 43.28 44.17 46.14 47.51 49.21 50.11 51.21 55.76 60.53 59.77 60.74 62.11 64.83 64.81 64.67 64.66 64.95 64.89 65.00 64.97 65.02 65.16 65.58 66.22 66.24 65.83 65.79 65.86 65.26
38.83 31.25 33.52 33.02 34.73 34.90 34.11 33.96 35.15 33.68 34.95 31.14 34.89 35.99 40.10 43.17 44.32 46.03 47.84 48.68 49.31 49.83 52.77 58.03 60.61 60.50 63.91 64.57 64.63 64.66 64.49 64.35 64.57 63.50 64.05 64.76 65.24 65.72 65.94 65.69 64.98 65.46 65.50 65.66
39.32 31.63 33.24 30.78 33.82 33.89 31.76 34.17 34.71 35.00 35.58 35.76 36.08 35.77 42.92 44.51 45.70 45.64 46.72 47.91 48.98 50.76 52.54 56.92 61.88 63.06 63.78 64.21 64.15 64.14 63.97 63.97 64.16 63.66 63.87 64.46 64.78 65.07 65.55 65.70 65.01 65.18 65.22 65.69
35.19 33.86 31.34 26.35 31.58 31.85 28.20 33.71 35.20 36.08 38.25 37.73 33.87 39.08 43.34 42.54 44.01 45.74 47.12 48.82 49.58 50.95 52.04 57.80 61.62 63.36 64.47 64.46 64.71 64.08 64.25 64.12 63.76 63.89 64.19 64.17 64.59 64.35 64.76 64.98 64.90 64.74 65.26 65.99
33.50 32.89 32.71 27.58 29.51 20.69 33.59 41.32 40.34 37.85 40.24 42.03 42.39 43.05 43.50 43.65 45.72 47.30 50.02 50.68 51.47 52.46 53.10 58.41 62.69 64.06 64.99 65.30 65.19 65.28 64.42 63.66 63.20 63.63 63.63 64.03 64.21 64.06 64.43 64.61 64.55 64.47 65.14 64.99
36.78 33.40 29.17 25.61 25.34 29.92 33.51 36.37 35.72 34.85 34.40 41.18 42.27 43.54 43.99 45.67 46.72 47.86 51.72 52.36 54.53 55.27 56.03 61.28 64.08 64.91 65.49 65.18 65.49 64.66 63.57 63.36 63.35 63.18 63.69 63.97 64.20 63.77 64.19 64.11 64.23 63.96 64.17 63.82
36.21 36.13 30.71 28.46 24.28 22.55 32.87 38.59 40.59 38.44 30.73 41.84 41.19 44.58 45.82 47.37 42.47 45.31 52.33 55.42 55.73 59.18 61.40 62.82 64.52 65.00 65.15 65.16 65.08 64.34 63.38 63.03 63.13 63.83 64.20 64.71 64.61 64.20 64.09 64.49 63.95 64.01 64.42 63.41
33.63 32.23 28.57 28.81 27.67 31.90 37.62 40.32 39.20 30.11 33.93 39.09 40.24 40.15 44.84 44.74 47.70 51.30 53.44 53.88 56.07 58.70 61.00 64.08 64.41 64.21 64.96 65.24 64.94 63.32 63.21 62.86 64.33 64.97 64.84 64.90 65.10 64.80 65.24 64.75 64.50 64.14 63.32 61.67
32.19 31.37 30.75 31.84 28.54 26.77 40.89 39.34 32.34 39.24 40.20 40.19 40.75 44.79 45.07 47.91 50.05 50.84 52.83 54.00 56.88 58.93 61.76 63.79 63.65 64.15 64.99 65.20 64.78 63.07 62.88 64.58 64.95 64.94 64.65 64.73 65.27 64.75 64.47 64.51 64.01 63.87 63.00 60.73
32.16 35.94 32.87 32.35 33.14 40.89 42.60 40.60 42.64 43.26 40.37 41.31 41.79 45.31 46.29 46.33 48.34 51.34 52.93 55.51 58.04 60.49 62.57 63.92 63.95 63.82 63.78 64.92 65.27 63.42 64.11 64.71 64.36 64.61 64.56 64.82 64.94 64.84 64.79 64.02 62.32 60.68 61.31 59.46
38.46 41.51 37.10 37.05 39.59 40.03 41.71 43.89 43.56 44.74 43.09 44.09 45.27 46.30 46.20 46.97 48.84 51.27 53.96 57.17 58.93 61.23 62.69 63.77 63.39 62.38 62.47 64.24 64.98 64.96 65.05 64.36 64.21 64.47 64.63 64.84 64.52 64.07 64.54 63.72 62.31 61.52 59.28 59.11
39.53 39.97 38.90 37.80 40.41 40.94 42.41 43.48 44.63 43.70 44.75 46.08 46.38 46.50 47.84 49.63 49.80 52.24 54.60 57.78 59.73 61.88 62.97 63.24 62.90 62.97 62.99 63.79 64.00 64.99 64.33 64.39 63.88 64.29 64.41 64.48 64.24 64.31 61.97 61.65 60.63 61.37 61.35 59.64
41.36 38.84 36.59 35.06 41.19 40.22 41.41 44.65 46.24 44.50 43.57 45.19 46.55 48.16 50.06 49.50 49.75 53.15 55.42 60.63 61.67 61.97 62.82 61.70 62.95 63.39 63.23 63.37 63.41 63.13 64.12 64.18 64.30 63.77 64.02 64.08 64.01 63.52 61.21 58.50 57.38 42.83 46.71 47.59

GFSCGP_sfc_wetblb_054.txt.gz
Wetbulb
45.41 41.51 38.88 41.22 42.35 42.03 43.22 43.35 43.53 46.51 49.73 49.67 48.89 49.07 51.58 54.40 54.93 56.03 57.01 58.33 59.20 59.62 61.50 62.72 63.66 64.57 65.03 67.74 68.73 70.13 70.16 72.43 70.46 69.76 69.75 70.30 70.31 71.34 71.64 72.40 73.01 73.04 73.07 72.69
42.38 38.59 42.87 43.60 42.42 41.06 41.65 41.24 42.43 46.39 48.43 48.52 48.84 48.61 51.50 53.32 54.45 55.86 56.60 57.47 58.28 59.37 60.38 61.46 62.65 63.46 64.53 65.87 67.72 69.57 69.81 70.99 70.81 70.17 71.54 71.85 71.83 72.09 72.38 72.73 73.18 73.26 73.15 72.66
39.33 41.61 43.91 42.00 40.58 38.82 40.18 40.20 41.66 42.99 46.61 48.43 47.63 46.19 48.98 52.47 54.28 55.52 56.53 57.38 57.88 57.92 57.95 59.33 60.08 62.01 63.57 64.74 67.16 68.02 69.73 70.36 71.27 71.71 72.05 72.18 72.64 71.75 71.04 71.76 72.21 72.71 72.70 72.71
40.96 43.77 41.59 40.48 38.87 39.99 36.15 42.14 42.80 43.03 42.85 40.14 47.31 38.86 46.97 49.94 51.14 53.10 54.47 55.64 56.46 57.24 58.35 58.65 59.16 60.65 62.48 63.50 64.54 67.18 68.89 69.66 70.76 72.12 72.56 72.52 70.50 69.65 70.71 71.76 72.48 72.44 72.94 72.70
39.50 40.01 39.26 37.79 39.13 40.99 38.45 42.26 42.59 42.86 41.93 42.50 43.75 41.29 45.13 49.50 48.73 51.46 53.82 54.60 55.75 56.61 57.01 57.47 57.89 59.43 60.65 62.02 62.88 65.37 67.59 70.03 71.81 72.22 72.37 71.00 72.10 71.69 72.30 72.17 72.81 73.08 72.84 72.83
41.93 45.72 42.03 40.29 41.50 42.03 43.19 40.85 41.92 42.58 41.19 35.06 40.79 41.41 42.15 45.62 48.19 50.53 52.78 53.57 54.28 55.13 55.85 57.29 58.72 59.64 59.93 60.88 61.85 64.39 68.87 71.13 72.23 72.04 71.77 72.23 72.59 72.48 71.50 72.02 71.59 71.69 72.19 72.53
38.43 40.25 42.65 41.80 38.89 41.42 41.29 37.19 31.40 30.78 33.27 33.40 42.16 40.12 42.48 48.41 49.16 50.40 51.47 51.37 53.23 55.16 56.21 57.17 58.09 58.68 60.51 61.28 62.28 65.60 69.77 71.17 72.07 71.85 72.20 72.83 73.09 73.26 72.95 72.41 71.46 71.25 70.16 70.13
32.89 29.64 39.11 42.23 39.90 37.67 38.74 37.38 31.87 27.09 30.58 34.91 41.47 37.20 42.30 49.26 51.51 52.04 52.30 52.22 53.81 56.39 58.01 59.71 61.23 62.65 62.62 61.55 64.09 67.07 69.74 71.23 71.76 72.06 72.53 73.08 73.37 72.20 72.04 72.14 70.93 70.07 69.15 69.60
32.43 32.24 40.47 42.36 41.82 41.63 37.67 33.69 40.46 34.68 37.67 36.12 39.12 41.85 46.29 48.45 49.10 50.66 51.03 51.27 53.48 57.24 60.37 62.46 64.24 65.45 64.31 62.51 66.34 69.01 70.82 71.51 71.77 71.89 72.01 72.20 72.23 72.04 71.32 71.85 71.55 69.63 71.03 70.62
37.06 31.69 39.15 39.75 42.47 42.99 39.42 41.85 34.66 36.70 27.68 28.87 36.63 38.69 40.28 45.12 46.50 49.15 49.93 50.94 53.11 56.11 59.12 62.52 64.58 64.98 64.47 65.56 68.53 70.55 71.76 71.45 71.65 71.64 71.78 71.33 71.49 71.29 71.22 71.00 70.31 70.48 70.54 70.00
40.76 35.98 34.03 39.23 36.29 33.36 37.40 36.84 37.64 38.03 36.85 32.71 32.61 37.70 46.99 47.67 48.78 49.40 50.46 51.60 53.15 54.27 57.35 61.77 64.57 63.96 66.11 67.84 69.44 70.83 71.23 71.00 70.82 71.08 70.94 70.48 69.97 70.25 70.37 70.05 70.16 70.10 70.12 69.32
40.90 37.25 32.93 35.50 40.54 41.15 40.09 37.60 38.68 32.21 32.93 37.11 37.45 39.14 48.77 50.00 50.19 50.59 50.69 51.97 53.44 54.46 55.81 62.00 64.50 62.63 66.63 68.03 69.63 70.30 70.53 70.30 70.27 69.69 69.46 69.45 69.56 69.65 69.59 69.29 69.48 69.59 68.67 68.51
39.46 35.90 30.50 32.75 37.99 40.82 37.37 37.92 40.38 40.53 38.78 35.63 34.00 38.35 48.43 48.81 48.89 49.47 50.33 51.96 52.78 53.58 54.62 58.19 63.91 62.27 64.92 68.09 68.92 69.28 69.47 69.14 69.07 68.89 68.94 68.87 68.94 68.75 68.58 68.53 68.75 68.48 68.02 67.27
41.69 37.07 33.68 29.56 32.99 36.99 33.79 37.20 39.04 38.03 34.28 36.03 37.40 39.68 45.10 46.78 47.11 48.89 50.24 51.94 52.23 52.79 54.17 55.54 62.35 62.48 63.45 67.58 68.34 68.37 68.37 68.56 68.32 68.10 68.00 67.69 67.67 67.34 67.70 68.45 68.26 67.62 67.37 66.94
39.03 32.73 36.34 37.15 37.88 37.50 36.62 36.34 37.89 37.12 38.23 34.56 38.35 39.32 43.26 46.11 47.34 48.65 50.26 51.10 50.66 51.35 53.21 54.80 57.90 63.46 63.90 65.94 67.62 67.94 67.72 67.77 67.98 67.26 66.51 65.85 66.95 68.05 68.26 67.92 67.62 67.67 66.96 66.54
40.74 34.08 36.94 34.37 37.34 37.53 35.30 37.45 38.14 38.33 38.71 38.69 39.08 39.10 45.31 46.98 47.64 47.56 48.42 49.12 50.06 51.31 52.94 54.40 56.83 64.16 64.17 65.24 66.27 67.04 67.06 67.15 67.34 65.38 64.78 66.14 66.98 67.30 67.62 67.35 67.14 66.79 66.59 66.93
36.63 36.00 33.05 31.08 35.71 35.17 31.74 36.90 37.98 38.96 40.55 39.88 36.76 41.91 45.98 45.79 46.66 47.74 48.64 49.39 49.86 51.09 53.32 55.48 56.65 64.59 64.91 66.17 66.78 66.55 66.97 67.17 65.33 64.53 65.14 65.99 66.72 66.59 66.86 67.09 66.63 66.15 66.67 67.07
35.43 35.47 34.19 31.12 32.85 23.24 37.69 43.65 42.22 40.13 41.68 42.83 43.47 44.16 46.90 47.93 49.79 49.99 50.52 50.03 50.67 53.25 54.83 56.66 57.87 65.53 65.69 66.54 67.54 67.70 67.21 66.01 64.35 64.37 65.27 66.13 66.26 66.00 66.32 66.38 65.91 66.82 67.11 66.84
38.36 35.13 31.34 28.92 28.03 32.34 35.60 38.22 37.38 36.85 36.31 42.63 42.72 44.48 46.92 49.41 49.99 49.50 51.56 52.02 52.48 54.69 58.49 60.36 60.73 66.15 66.21 66.23 67.54 67.11 66.16 64.71 63.70 64.51 65.30 65.85 66.12 65.88 65.91 65.94 66.13 66.87 66.47 66.93
37.49 35.78 33.76 31.79 26.74 24.49 36.50 40.67 41.84 39.93 32.27 40.08 40.46 42.10 45.76 47.48 44.36 46.72 52.62 54.22 56.49 58.47 59.86 61.48 64.33 65.81 65.90 66.92 67.88 66.63 64.97 63.22 63.54 64.88 65.25 66.27 66.44 66.19 65.62 66.28 66.62 66.77 67.11 66.34
34.73 33.31 30.10 30.71 30.26 34.05 40.77 42.10 40.78 31.30 36.34 42.89 42.41 42.49 44.29 42.92 47.30 52.33 55.10 55.34 57.00 57.71 59.85 62.59 65.22 65.17 65.97 67.20 67.66 65.57 64.15 63.20 65.09 66.01 66.06 66.52 66.60 66.74 66.98 66.81 67.06 66.76 65.83 65.61
33.40 32.68 33.46 33.37 30.44 29.19 43.47 41.31 33.90 42.47 43.03 42.57 43.26 43.02 43.06 45.90 49.49 49.79 53.83 55.05 56.67 58.57 60.59 63.37 64.20 65.11 66.74 67.44 66.78 65.54 63.45 64.59 66.04 65.86 65.63 66.15 66.93 66.75 66.63 66.92 66.63 65.76 64.66 64.26
35.01 37.76 34.51 35.19 35.77 43.29 44.25 42.35 43.80 43.69 42.14 42.33 43.16 44.07 43.95 44.07 47.35 49.93 52.70 55.47 57.93 59.81 62.42 64.31 64.66 65.59 66.41 67.51 66.86 64.47 63.95 65.74 65.84 65.69 65.39 66.21 66.84 66.70 66.84 65.99 64.77 63.39 63.85 62.67
40.90 43.56 38.46 38.38 40.77 41.96 43.40 44.93 44.66 44.23 43.71 44.75 45.18 45.16 46.03 46.05 48.89 51.45 54.17 56.29 58.56 61.66 62.85 64.32 65.20 65.59 66.40 67.09 66.54 65.46 64.81 66.01 65.66 65.06 65.24 65.96 66.10 65.83 66.54 65.91 65.76 63.90 63.21 62.05
41.68 42.21 39.91 39.79 41.62 41.99 42.65 43.17 44.63 45.70 45.51 44.29 45.54 46.55 48.17 50.47 51.11 52.26 54.95 56.93 59.25 62.44 64.12 65.38 65.81 66.49 66.38 67.17 66.93 64.85 65.29 66.06 65.43 65.09 65.48 65.76 65.90 65.90 65.67 65.73 63.53 63.82 63.19 61.33
43.91 40.48 37.66 37.46 42.38 41.10 41.63 44.93 46.80 45.42 43.96 44.76 44.93 45.70 48.89 50.28 51.36 54.19 54.41 58.60 59.94 63.66 64.87 65.75 66.75 66.60 66.57 66.60 65.38 64.29 65.55 66.19 65.83 64.71 65.10 65.12 65.56 65.92 65.05 64.39 62.76 43.18 45.80 45.18